Time,TemperatureF,DewpointF,PressureIn,WindDirection,WindDirectionDegrees,WindSpeedMPH,WindSpeedGustMPH,Humidity,HourlyPrecipIn,Conditions,Clouds,dailyrainin,SoftwareType,DateUTC
2013-02-16 00:00:00,64.8,62.0,29.95,NW,321,2.5,3.1,91,0.00,,,0.40,TxWx,2013-02-16 05:00:00,
2013-02-16 00:01:00,64.8,62.0,29.95,WNW,298,3.7,3.7,91,0.00,,,0.40,TxWx,2013-02-16 05:01:00,
2013-02-16 00:05:00,64.8,62.0,29.95,NW,321,3.1,3.1,91,0.00,,,0.00,TxWx,2013-02-16 05:05:00,
2013-02-16 00:06:00,64.8,62.0,29.95,WNW,298,4.3,4.3,91,0.00,,,0.00,TxWx,2013-02-16 05:06:00,
2013-02-16 00:07:00,64.8,62.0,29.95,WNW,298,2.5,2.5,91,0.00,,,0.00,TxWx,2013-02-16 05:07:00,
2013-02-16 00:12:00,64.8,62.0,29.95,WNW,298,2.5,3.1,91,0.00,,,0.00,TxWx,2013-02-16 05:12:00,
2013-02-16 00:13:00,64.7,62.0,29.95,NW,321,2.5,2.5,91,0.00,,,0.00,TxWx,2013-02-16 05:13:00,
2013-02-16 00:17:00,64.7,62.0,29.95,WNW,298,3.1,3.7,91,0.00,,,0.00,TxWx,2013-02-16 05:17:00,
2013-02-16 00:18:00,64.6,62.0,29.95,West,276,5.6,5.6,91,0.00,,,0.00,TxWx,2013-02-16 05:18:00,
2013-02-16 00:19:00,64.7,62.0,29.95,NW,321,3.1,4.3,91,0.00,,,0.00,TxWx,2013-02-16 05:19:00,
2013-02-16 00:23:00,64.7,62.0,29.96,West,276,4.3,4.3,91,0.00,,,0.00,TxWx,2013-02-16 05:23:00,
2013-02-16 00:24:00,64.7,62.0,29.96,West,276,5.0,5.6,91,0.00,,,0.00,TxWx,2013-02-16 05:24:00,
2013-02-16 00:25:00,64.7,62.0,29.96,WNW,298,5.6,5.6,91,0.00,,,0.00,TxWx,2013-02-16 05:25:00,
2013-02-16 00:26:00,64.8,62.0,29.96,NW,321,5.0,5.0,91,0.00,,,0.00,TxWx,2013-02-16 05:26:00,
2013-02-16 00:30:00,64.7,62.0,29.96,WNW,298,5.0,5.0,91,0.00,,,0.00,TxWx,2013-02-16 05:30:00,
2013-02-16 00:31:00,64.7,62.0,29.95,WNW,298,5.0,5.0,91,0.00,,,0.00,TxWx,2013-02-16 05:31:00,
2013-02-16 00:32:00,64.5,62.0,29.96,West,276,4.3,5.0,91,0.00,,,0.00,TxWx,2013-02-16 05:32:00,
2013-02-16 00:36:00,64.5,61.0,29.96,WNW,298,3.1,3.1,91,0.00,,,0.00,TxWx,2013-02-16 05:36:00,
2013-02-16 00:37:00,64.5,61.0,29.96,NW,321,4.3,4.3,91,0.00,,,0.00,TxWx,2013-02-16 05:37:00,
2013-02-16 00:38:00,64.5,62.0,29.96,WNW,298,3.1,3.1,91,0.00,,,0.00,TxWx,2013-02-16 05:38:00,
2013-02-16 00:42:00,64.4,61.0,29.95,WNW,298,3.7,3.7,91,0.00,,,0.00,TxWx,2013-02-16 05:42:00,
2013-02-16 00:43:00,64.4,61.0,29.95,WNW,298,4.3,5.0,91,0.00,,,0.01,TxWx,2013-02-16 05:43:00,
2013-02-16 00:44:00,64.4,61.0,29.95,NW,321,4.3,4.3,91,0.00,,,0.01,TxWx,2013-02-16 05:44:00,
2013-02-16 00:47:00,64.5,62.0,29.95,WNW,298,3.7,3.7,92,0.00,,,0.01,TxWx,2013-02-16 05:47:00,
2013-02-16 00:49:00,64.5,62.0,29.95,West,276,4.3,5.0,92,0.00,,,0.01,TxWx,2013-02-16 05:49:00,
2013-02-16 00:50:00,64.5,61.0,29.95,WNW,298,3.1,3.1,92,0.00,,,0.01,TxWx,2013-02-16 05:50:00,
2013-02-16 00:51:00,64.4,61.0,29.95,WNW,298,4.3,5.0,92,0.00,,,0.01,TxWx,2013-02-16 05:51:00,
2013-02-16 00:54:00,64.4,61.0,29.95,WNW,298,3.7,3.7,92,0.06,,,0.01,TxWx,2013-02-16 05:54:00,
2013-02-16 00:56:00,64.4,61.0,29.95,WNW,298,3.1,3.7,92,0.06,,,0.01,TxWx,2013-02-16 05:56:00,
2013-02-16 00:58:00,64.3,61.0,29.95,NW,321,3.1,3.1,92,0.06,,,0.01,TxWx,2013-02-16 05:58:00,
2013-02-16 01:00:00,64.4,61.0,29.95,WNW,298,3.1,3.7,92,0.06,,,0.01,TxWx,2013-02-16 06:00:00,
2013-02-16 01:03:00,64.3,61.0,29.94,WNW,298,4.3,4.3,92,0.00,,,0.01,TxWx,2013-02-16 06:03:00,
2013-02-16 01:05:00,64.2,61.0,29.94,NW,321,3.1,3.7,92,0.00,,,0.01,TxWx,2013-02-16 06:05:00,
2013-02-16 01:07:00,64.3,61.0,29.95,NW,321,1.9,1.9,92,0.00,,,0.01,TxWx,2013-02-16 06:07:00,
2013-02-16 01:09:00,64.4,62.0,29.95,WNW,298,5.0,6.2,92,0.00,,,0.01,TxWx,2013-02-16 06:09:00,
2013-02-16 01:10:00,64.4,62.0,29.95,West,276,3.7,5.0,92,0.00,,,0.01,TxWx,2013-02-16 06:10:00,
2013-02-16 01:12:00,64.3,61.0,29.94,WNW,298,2.5,2.5,92,0.00,,,0.01,TxWx,2013-02-16 06:12:00,
2013-02-16 01:14:00,64.1,61.0,29.94,WNW,298,2.5,2.5,92,0.00,,,0.01,TxWx,2013-02-16 06:14:00,
2013-02-16 01:15:00,64.2,61.0,29.94,WNW,298,2.5,2.5,92,0.00,,,0.01,TxWx,2013-02-16 06:15:00,
2013-02-16 01:16:00,64.2,61.0,29.94,West,276,2.5,2.5,92,0.00,,,0.01,TxWx,2013-02-16 06:16:00,
2013-02-16 01:18:00,64.2,61.0,29.94,NW,321,3.1,3.1,92,0.00,,,0.01,TxWx,2013-02-16 06:18:00,
2013-02-16 01:19:00,64.2,62.0,29.94,WNW,298,3.1,3.7,92,0.00,,,0.01,TxWx,2013-02-16 06:19:00,
2013-02-16 01:21:00,64.2,62.0,29.95,West,276,5.6,6.2,92,0.00,,,0.01,TxWx,2013-02-16 06:21:00,
2013-02-16 01:24:00,64.3,62.0,29.94,West,276,3.7,3.7,92,0.00,,,0.01,TxWx,2013-02-16 06:24:00,
2013-02-16 01:27:00,64.1,62.0,29.94,NW,321,4.3,5.0,92,0.00,,,0.01,TxWx,2013-02-16 06:27:00,
2013-02-16 01:30:00,64.3,62.0,29.95,NW,321,5.6,5.6,92,0.00,,,0.01,TxWx,2013-02-16 06:30:00,
2013-02-16 01:31:00,64.3,62.0,29.95,NW,321,4.3,5.0,92,0.00,,,0.01,TxWx,2013-02-16 06:31:00,
2013-02-16 01:32:00,64.4,62.0,29.95,NW,321,4.3,5.0,92,0.00,,,0.01,TxWx,2013-02-16 06:32:00,
2013-02-16 01:33:00,64.5,62.0,29.95,WNW,298,2.5,2.5,92,0.00,,,0.01,TxWx,2013-02-16 06:33:00,
2013-02-16 01:36:00,64.2,61.0,29.95,WNW,298,5.0,5.0,92,0.00,,,0.01,TxWx,2013-02-16 06:36:00,
2013-02-16 01:37:00,64.3,62.0,29.95,WNW,298,6.2,6.2,92,0.00,,,0.01,TxWx,2013-02-16 06:37:00,
2013-02-16 01:38:00,64.5,62.0,29.96,West,276,6.8,7.4,92,0.00,,,0.01,TxWx,2013-02-16 06:38:00,
2013-02-16 01:42:00,64.2,62.0,29.95,WNW,298,5.6,6.8,92,0.00,,,0.01,TxWx,2013-02-16 06:42:00,
2013-02-16 01:43:00,64.2,62.0,29.95,WNW,298,6.2,6.8,92,0.00,,,0.01,TxWx,2013-02-16 06:43:00,
2013-02-16 01:44:00,64.4,62.0,29.95,WNW,298,6.2,6.2,92,0.00,,,0.01,TxWx,2013-02-16 06:44:00,
2013-02-16 01:49:00,64.1,62.0,29.95,WNW,298,2.5,2.5,92,0.00,,,0.02,TxWx,2013-02-16 06:49:00,
2013-02-16 01:51:00,64.0,62.0,29.95,WNW,298,4.3,4.3,92,0.00,,,0.02,TxWx,2013-02-16 06:51:00,
2013-02-16 01:55:00,64.1,62.0,29.95,WNW,298,3.1,3.1,92,0.06,,,0.02,TxWx,2013-02-16 06:55:00,
2013-02-16 01:58:00,64.0,62.0,29.94,NW,321,2.5,3.1,92,0.06,,,0.02,TxWx,2013-02-16 06:58:00,
2013-02-16 02:00:00,64.0,62.0,29.94,WNW,298,3.7,3.7,92,0.06,,,0.02,TxWx,2013-02-16 07:00:00,
2013-02-16 02:01:00,63.9,62.0,29.94,WNW,298,5.0,5.0,92,0.06,,,0.02,TxWx,2013-02-16 07:01:00,
2013-02-16 02:05:00,64.0,62.0,29.94,WNW,298,2.5,3.1,92,0.00,,,0.02,TxWx,2013-02-16 07:05:00,
2013-02-16 02:07:00,63.9,62.0,29.94,WNW,298,5.0,5.6,92,0.00,,,0.02,TxWx,2013-02-16 07:07:00,
2013-02-16 02:11:00,63.9,62.0,29.94,NW,321,3.1,3.7,92,0.00,,,0.02,TxWx,2013-02-16 07:11:00,
2013-02-16 02:12:00,64.0,62.0,29.93,North,6,4.3,5.0,92,0.00,,,0.02,TxWx,2013-02-16 07:12:00,
2013-02-16 02:13:00,64.1,62.0,29.93,WNW,298,4.3,5.0,92,0.00,,,0.02,TxWx,2013-02-16 07:13:00,
2013-02-16 02:17:00,63.9,62.0,29.93,WNW,298,3.1,3.7,92,0.00,,,0.02,TxWx,2013-02-16 07:17:00,
2013-02-16 02:18:00,63.9,62.0,29.93,WNW,298,5.6,5.6,92,0.00,,,0.02,TxWx,2013-02-16 07:18:00,
2013-02-16 02:19:00,63.9,62.0,29.93,West,276,3.7,3.7,92,0.00,,,0.02,TxWx,2013-02-16 07:19:00,
2013-02-16 02:22:00,63.9,62.0,29.93,WNW,298,4.3,5.0,92,0.00,,,0.02,TxWx,2013-02-16 07:22:00,
2013-02-16 02:25:00,64.0,62.0,29.93,WNW,298,5.0,5.6,92,0.00,,,0.02,TxWx,2013-02-16 07:25:00,
2013-02-16 02:27:00,63.8,62.0,29.93,WNW,298,3.1,3.1,92,0.00,,,0.02,TxWx,2013-02-16 07:27:00,
2013-02-16 02:30:00,63.8,62.0,29.93,NW,321,2.5,3.1,92,0.00,,,0.02,TxWx,2013-02-16 07:30:00,
2013-02-16 02:32:00,63.9,62.0,29.93,WNW,298,3.7,4.3,92,0.00,,,0.02,TxWx,2013-02-16 07:32:00,
2013-02-16 02:33:00,63.8,62.0,29.93,NW,321,2.5,3.1,92,0.00,,,0.02,TxWx,2013-02-16 07:33:00,
2013-02-16 02:37:00,64.0,62.0,29.93,West,276,3.1,3.1,92,0.00,,,0.02,TxWx,2013-02-16 07:37:00,
2013-02-16 02:38:00,64.0,62.0,29.93,WNW,298,3.1,3.1,93,0.00,,,0.02,TxWx,2013-02-16 07:38:00,
2013-02-16 02:39:00,63.9,62.0,29.92,WNW,298,5.0,5.0,92,0.00,,,0.02,TxWx,2013-02-16 07:39:00,
2013-02-16 02:42:00,64.0,62.0,29.92,NW,321,4.3,4.3,92,0.00,,,0.02,TxWx,2013-02-16 07:42:00,
2013-02-16 02:44:00,64.0,62.0,29.92,West,276,4.3,4.3,93,0.00,,,0.02,TxWx,2013-02-16 07:44:00,
2013-02-16 02:45:00,64.0,62.0,29.92,NNW,343,4.3,5.0,92,0.00,,,0.02,TxWx,2013-02-16 07:45:00,
2013-02-16 02:48:00,63.7,62.0,29.92,WNW,298,3.7,3.7,92,0.00,,,0.02,TxWx,2013-02-16 07:48:00,
2013-02-16 02:49:00,63.8,62.0,29.92,NW,321,3.7,3.7,92,0.00,,,0.02,TxWx,2013-02-16 07:49:00,
2013-02-16 02:50:00,63.9,62.0,29.92,NW,321,3.7,3.7,92,0.00,,,0.02,TxWx,2013-02-16 07:50:00,
2013-02-16 02:55:00,63.8,62.0,29.92,WNW,298,3.7,3.7,92,0.00,,,0.02,TxWx,2013-02-16 07:55:00,
2013-02-16 02:56:00,63.9,62.0,29.91,NNW,343,4.3,5.6,92,0.00,,,0.02,TxWx,2013-02-16 07:56:00,
2013-02-16 02:57:00,64.0,62.0,29.91,WNW,298,2.5,2.5,92,0.00,,,0.02,TxWx,2013-02-16 07:57:00,
2013-02-16 03:00:00,63.7,62.0,29.91,WNW,298,2.5,3.7,92,0.00,,,0.02,TxWx,2013-02-16 08:00:00,
2013-02-16 03:01:00,63.8,62.0,29.91,NW,321,1.2,1.2,92,0.00,,,0.02,TxWx,2013-02-16 08:01:00,
2013-02-16 03:02:00,63.8,62.0,29.91,North,6,2.5,2.5,92,0.00,,,0.02,TxWx,2013-02-16 08:02:00,
2013-02-16 03:03:00,63.8,62.0,29.91,WNW,298,3.1,3.1,92,0.00,,,0.02,TxWx,2013-02-16 08:03:00,
2013-02-16 03:05:00,63.9,62.0,29.91,WNW,298,2.5,2.5,92,0.00,,,0.02,TxWx,2013-02-16 08:05:00,
2013-02-16 03:07:00,63.8,61.0,29.91,NW,321,2.5,3.1,92,0.00,,,0.02,TxWx,2013-02-16 08:07:00,
2013-02-16 03:10:00,63.9,61.0,29.91,WNW,298,5.6,5.6,92,0.00,,,0.02,TxWx,2013-02-16 08:10:00,
2013-02-16 03:13:00,63.9,61.0,29.91,West,276,2.5,2.5,92,0.00,,,0.02,TxWx,2013-02-16 08:13:00,
2013-02-16 03:18:00,64.0,61.0,29.91,WNW,298,1.9,2.5,92,0.00,,,0.02,TxWx,2013-02-16 08:18:00,
2013-02-16 03:19:00,64.0,61.0,29.90,WNW,298,3.1,3.1,92,0.00,,,0.02,TxWx,2013-02-16 08:19:00,
2013-02-16 03:23:00,63.9,61.0,29.91,WNW,298,4.3,4.3,92,0.00,,,0.02,TxWx,2013-02-16 08:23:00,
2013-02-16 03:24:00,63.9,61.0,29.91,NW,321,3.1,3.1,91,0.00,,,0.02,TxWx,2013-02-16 08:24:00,
2013-02-16 03:25:00,63.8,61.0,29.91,WNW,298,4.3,4.3,91,0.00,,,0.02,TxWx,2013-02-16 08:25:00,
2013-02-16 03:28:00,63.9,61.0,29.91,NW,321,3.1,4.3,91,0.00,,,0.02,TxWx,2013-02-16 08:28:00,
2013-02-16 03:29:00,63.9,61.0,29.91,NW,321,2.5,2.5,91,0.00,,,0.02,TxWx,2013-02-16 08:29:00,
2013-02-16 03:31:00,63.9,61.0,29.91,WNW,298,3.1,3.1,91,0.00,,,0.02,TxWx,2013-02-16 08:31:00,
2013-02-16 03:34:00,63.8,61.0,29.91,West,276,3.7,3.7,91,0.00,,,0.02,TxWx,2013-02-16 08:34:00,
2013-02-16 03:36:00,64.0,61.0,29.91,WNW,298,4.3,4.3,91,0.00,,,0.02,TxWx,2013-02-16 08:36:00,
2013-02-16 03:39:00,64.0,61.0,29.91,WNW,298,3.1,3.1,91,0.00,,,0.02,TxWx,2013-02-16 08:39:00,
2013-02-16 03:43:00,63.8,61.0,29.91,West,276,5.6,6.2,91,0.00,,,0.02,TxWx,2013-02-16 08:43:00,
2013-02-16 03:44:00,63.9,61.0,29.90,NW,321,5.0,5.0,91,0.00,,,0.02,TxWx,2013-02-16 08:44:00,
2013-02-16 03:45:00,63.8,61.0,29.91,WNW,298,5.6,6.2,91,0.00,,,0.02,TxWx,2013-02-16 08:45:00,
2013-02-16 03:48:00,63.8,61.0,29.91,WNW,298,5.0,5.0,91,0.00,,,0.02,TxWx,2013-02-16 08:48:00,
2013-02-16 03:50:00,63.9,61.0,29.90,WNW,298,3.7,3.7,91,0.00,,,0.02,TxWx,2013-02-16 08:50:00,
2013-02-16 03:54:00,64.0,61.0,29.90,West,276,4.3,4.3,91,0.00,,,0.02,TxWx,2013-02-16 08:54:00,
2013-02-16 03:55:00,63.8,61.0,29.90,West,276,2.5,2.5,91,0.00,,,0.02,TxWx,2013-02-16 08:55:00,
2013-02-16 03:57:00,63.9,61.0,29.90,West,276,5.6,5.6,91,0.00,,,0.02,TxWx,2013-02-16 08:57:00,
2013-02-16 04:00:00,63.9,61.0,29.91,NW,321,4.3,5.0,90,0.00,,,0.02,TxWx,2013-02-16 09:00:00,
2013-02-16 04:01:00,63.9,61.0,29.90,NW,321,2.5,3.1,90,0.00,,,0.02,TxWx,2013-02-16 09:01:00,
2013-02-16 04:04:00,63.8,61.0,29.90,WNW,298,8.7,8.7,90,0.00,,,0.02,TxWx,2013-02-16 09:04:00,
2013-02-16 04:06:00,63.7,61.0,29.90,WNW,298,5.0,5.0,90,0.00,,,0.02,TxWx,2013-02-16 09:06:00,
2013-02-16 04:08:00,63.8,61.0,29.90,WNW,298,6.2,6.2,90,0.00,,,0.02,TxWx,2013-02-16 09:08:00,
2013-02-16 04:11:00,63.8,61.0,29.90,NW,321,3.7,4.3,89,0.00,,,0.02,TxWx,2013-02-16 09:11:00,
2013-02-16 04:12:00,63.8,61.0,29.90,WNW,298,3.7,4.3,90,0.00,,,0.02,TxWx,2013-02-16 09:12:00,
2013-02-16 04:13:00,63.9,61.0,29.90,WNW,298,4.3,5.0,90,0.00,,,0.02,TxWx,2013-02-16 09:13:00,
2013-02-16 04:17:00,63.8,61.0,29.90,WNW,298,4.3,4.3,89,0.00,,,0.02,TxWx,2013-02-16 09:17:00,
2013-02-16 04:19:00,63.8,61.0,29.90,NW,321,3.7,4.3,89,0.00,,,0.02,TxWx,2013-02-16 09:19:00,
2013-02-16 04:23:00,63.8,61.0,29.90,NW,321,5.0,6.8,89,0.00,,,0.02,TxWx,2013-02-16 09:23:00,
2013-02-16 04:25:00,63.8,61.0,29.90,NW,321,3.7,3.7,89,0.00,,,0.02,TxWx,2013-02-16 09:25:00,
2013-02-16 04:28:00,63.9,61.0,29.90,WNW,298,3.7,3.7,89,0.00,,,0.02,TxWx,2013-02-16 09:28:00,
2013-02-16 04:29:00,63.9,61.0,29.90,WNW,298,2.5,3.1,89,0.00,,,0.02,TxWx,2013-02-16 09:29:00,
2013-02-16 04:30:00,63.8,61.0,29.90,West,276,3.7,3.7,89,0.00,,,0.02,TxWx,2013-02-16 09:30:00,
2013-02-16 04:34:00,63.9,61.0,29.90,WNW,298,4.3,4.3,89,0.00,,,0.02,TxWx,2013-02-16 09:34:00,
2013-02-16 04:38:00,63.7,60.0,29.89,NNW,343,3.7,4.3,88,0.00,,,0.02,TxWx,2013-02-16 09:38:00,
2013-02-16 04:40:00,63.7,60.0,29.89,NW,321,3.7,3.7,88,0.00,,,0.02,TxWx,2013-02-16 09:40:00,
2013-02-16 04:41:00,63.8,60.0,29.89,WNW,298,4.3,5.0,88,0.00,,,0.02,TxWx,2013-02-16 09:41:00,
2013-02-16 04:42:00,63.8,60.0,29.89,NNW,343,3.7,4.3,88,0.00,,,0.02,TxWx,2013-02-16 09:42:00,
2013-02-16 04:45:00,63.8,60.0,29.89,West,276,3.7,4.3,88,0.00,,,0.02,TxWx,2013-02-16 09:45:00,
2013-02-16 04:48:00,63.9,60.0,29.89,NW,321,3.1,3.1,88,0.00,,,0.02,TxWx,2013-02-16 09:48:00,
2013-02-16 04:50:00,63.9,60.0,29.89,WNW,298,3.1,3.1,88,0.00,,,0.02,TxWx,2013-02-16 09:50:00,
2013-02-16 04:53:00,63.8,60.0,29.89,West,276,3.1,3.1,88,0.00,,,0.02,TxWx,2013-02-16 09:53:00,
2013-02-16 04:58:00,64.0,60.0,29.89,WNW,298,3.1,3.1,88,0.00,,,0.02,TxWx,2013-02-16 09:58:00,
2013-02-16 04:59:00,64.0,60.0,29.89,NW,321,3.1,3.1,88,0.00,,,0.02,TxWx,2013-02-16 09:59:00,
2013-02-16 05:04:00,63.8,60.0,29.89,NW,321,4.3,4.3,87,0.00,,,0.02,TxWx,2013-02-16 10:04:00,
2013-02-16 05:09:00,63.9,60.0,29.89,WNW,298,1.9,2.5,87,0.00,,,0.02,TxWx,2013-02-16 10:09:00,
2013-02-16 05:10:00,63.9,60.0,29.90,WNW,298,3.1,3.1,87,0.00,,,0.02,TxWx,2013-02-16 10:10:00,
2013-02-16 05:13:00,63.8,60.0,29.90,WNW,298,3.7,3.7,87,0.00,,,0.02,TxWx,2013-02-16 10:13:00,
2013-02-16 05:14:00,63.8,60.0,29.90,WNW,298,3.7,4.3,87,0.00,,,0.02,TxWx,2013-02-16 10:14:00,
2013-02-16 05:15:00,63.8,60.0,29.90,WNW,298,2.5,2.5,87,0.00,,,0.02,TxWx,2013-02-16 10:15:00,
2013-02-16 05:16:00,63.8,60.0,29.90,NW,321,3.7,3.7,87,0.00,,,0.02,TxWx,2013-02-16 10:16:00,
2013-02-16 05:19:00,63.8,60.0,29.90,NW,321,3.7,4.3,87,0.00,,,0.02,TxWx,2013-02-16 10:19:00,
2013-02-16 05:21:00,63.9,60.0,29.90,West,276,3.1,3.7,87,0.00,,,0.02,TxWx,2013-02-16 10:21:00,
2013-02-16 05:23:00,63.7,60.0,29.90,NW,321,4.3,5.0,87,0.00,,,0.02,TxWx,2013-02-16 10:23:00,
2013-02-16 05:24:00,63.9,60.0,29.90,WNW,298,2.5,2.5,87,0.00,,,0.02,TxWx,2013-02-16 10:24:00,
2013-02-16 05:27:00,63.9,60.0,29.90,West,276,3.7,3.7,87,0.00,,,0.02,TxWx,2013-02-16 10:27:00,
2013-02-16 05:28:00,63.9,60.0,29.90,West,276,3.7,4.3,87,0.00,,,0.02,TxWx,2013-02-16 10:28:00,
2013-02-16 05:31:00,64.0,60.0,29.89,WSW,253,1.9,1.9,87,0.00,,,0.02,TxWx,2013-02-16 10:31:00,
2013-02-16 05:33:00,64.0,60.0,29.89,West,276,3.1,3.7,87,0.00,,,0.02,TxWx,2013-02-16 10:33:00,
2013-02-16 05:35:00,63.9,60.0,29.89,NW,321,3.7,4.3,87,0.00,,,0.02,TxWx,2013-02-16 10:35:00,
2013-02-16 05:36:00,64.0,60.0,29.89,WNW,298,2.5,2.5,87,0.00,,,0.02,TxWx,2013-02-16 10:36:00,
2013-02-16 05:38:00,63.9,60.0,29.89,WSW,253,2.5,3.1,87,0.00,,,0.02,TxWx,2013-02-16 10:38:00,
2013-02-16 05:41:00,64.0,60.0,29.89,WNW,298,2.5,2.5,87,0.00,,,0.02,TxWx,2013-02-16 10:41:00,
2013-02-16 05:44:00,63.9,60.0,29.90,North,6,3.1,3.1,87,0.00,,,0.02,TxWx,2013-02-16 10:44:00,
2013-02-16 05:46:00,64.0,60.0,29.90,WNW,298,3.1,3.7,87,0.00,,,0.02,TxWx,2013-02-16 10:46:00,
2013-02-16 05:47:00,63.8,60.0,29.90,WNW,298,4.3,5.0,86,0.00,,,0.02,TxWx,2013-02-16 10:47:00,
2013-02-16 05:50:00,63.8,60.0,29.90,West,276,3.1,3.1,86,0.00,,,0.02,TxWx,2013-02-16 10:50:00,
2013-02-16 05:52:00,63.9,60.0,29.90,NW,321,2.5,2.5,87,0.00,,,0.02,TxWx,2013-02-16 10:52:00,
2013-02-16 05:57:00,63.8,60.0,29.90,West,276,1.9,3.1,87,0.00,,,0.02,TxWx,2013-02-16 10:57:00,
2013-02-16 05:58:00,63.7,60.0,29.90,WNW,298,3.7,3.7,87,0.00,,,0.02,TxWx,2013-02-16 10:58:00,
2013-02-16 05:59:00,63.6,60.0,29.90,West,276,3.1,3.1,87,0.00,,,0.02,TxWx,2013-02-16 10:59:00,
2013-02-16 06:02:00,63.7,60.0,29.91,WNW,298,3.7,3.7,87,0.00,,,0.02,TxWx,2013-02-16 11:02:00,
2013-02-16 06:04:00,63.8,60.0,29.91,NW,321,3.7,3.7,87,0.00,,,0.02,TxWx,2013-02-16 11:04:00,
2013-02-16 06:05:00,63.8,60.0,29.91,WNW,298,3.7,3.7,87,0.00,,,0.02,TxWx,2013-02-16 11:05:00,
2013-02-16 06:09:00,63.7,60.0,29.91,NW,321,2.5,2.5,87,0.00,,,0.02,TxWx,2013-02-16 11:09:00,
2013-02-16 06:11:00,63.6,60.0,29.91,NW,321,1.9,1.9,87,0.00,,,0.02,TxWx,2013-02-16 11:11:00,
2013-02-16 06:12:00,63.5,60.0,29.91,WNW,298,2.5,3.1,86,0.00,,,0.02,TxWx,2013-02-16 11:12:00,
2013-02-16 06:14:00,63.6,60.0,29.91,West,276,1.9,1.9,87,0.00,,,0.02,TxWx,2013-02-16 11:14:00,
2013-02-16 06:16:00,63.6,60.0,29.91,West,276,3.7,3.7,87,0.00,,,0.02,TxWx,2013-02-16 11:16:00,
2013-02-16 06:19:00,63.6,60.0,29.91,WNW,298,3.7,3.7,87,0.00,,,0.02,TxWx,2013-02-16 11:19:00,
2013-02-16 06:21:00,63.5,60.0,29.91,NW,321,4.3,4.3,87,0.00,,,0.02,TxWx,2013-02-16 11:21:00,
2013-02-16 06:26:00,63.6,60.0,29.91,WNW,298,5.0,5.0,87,0.00,,,0.02,TxWx,2013-02-16 11:26:00,
2013-02-16 06:27:00,63.6,60.0,29.92,WNW,298,3.1,3.1,87,0.00,,,0.02,TxWx,2013-02-16 11:27:00,
2013-02-16 06:32:00,63.6,60.0,29.92,WNW,298,2.5,2.5,87,0.00,,,0.02,TxWx,2013-02-16 11:32:00,
2013-02-16 06:34:00,63.7,60.0,29.91,NW,321,3.1,3.1,87,0.00,,,0.02,TxWx,2013-02-16 11:34:00,
2013-02-16 06:35:00,63.6,60.0,29.92,NW,321,5.6,5.6,86,0.00,,,0.02,TxWx,2013-02-16 11:35:00,
2013-02-16 06:39:00,63.7,60.0,29.92,West,276,1.9,1.9,86,0.00,,,0.02,TxWx,2013-02-16 11:39:00,
2013-02-16 06:41:00,63.7,60.0,29.92,WNW,298,2.5,2.5,86,0.00,,,0.02,TxWx,2013-02-16 11:41:00,
2013-02-16 06:44:00,63.7,60.0,29.92,NW,321,3.7,4.3,86,0.00,,,0.02,TxWx,2013-02-16 11:44:00,
2013-02-16 06:46:00,63.7,60.0,29.92,NW,321,5.0,5.0,87,0.00,,,0.02,TxWx,2013-02-16 11:46:00,
2013-02-16 06:47:00,63.8,60.0,29.92,WNW,298,4.3,4.3,87,0.00,,,0.02,TxWx,2013-02-16 11:47:00,
2013-02-16 06:49:00,63.8,60.0,29.92,WNW,298,5.6,5.6,87,0.00,,,0.02,TxWx,2013-02-16 11:49:00,
2013-02-16 06:52:00,63.5,60.0,29.92,North,6,8.0,8.0,87,0.00,,,0.02,TxWx,2013-02-16 11:52:00,
2013-02-16 06:54:00,63.6,60.0,29.92,WNW,298,4.3,4.3,87,0.00,,,0.02,TxWx,2013-02-16 11:54:00,
2013-02-16 06:57:00,63.6,60.0,29.92,WNW,298,3.1,3.7,87,0.00,,,0.02,TxWx,2013-02-16 11:57:00,
2013-02-16 06:59:00,63.4,59.0,29.92,NNW,343,5.6,6.2,86,0.00,,,0.02,TxWx,2013-02-16 11:59:00,
2013-02-16 07:00:00,63.5,60.0,29.92,NW,321,3.7,4.3,87,0.00,,,0.02,TxWx,2013-02-16 12:00:00,
2013-02-16 07:05:00,63.5,59.0,29.92,WNW,298,3.7,4.3,86,0.00,,,0.02,TxWx,2013-02-16 12:05:00,
2013-02-16 07:06:00,63.5,59.0,29.92,West,276,3.1,3.7,86,0.00,,,0.02,TxWx,2013-02-16 12:06:00,
2013-02-16 07:07:00,63.5,60.0,29.92,WNW,298,2.5,3.1,87,0.00,,,0.02,TxWx,2013-02-16 12:07:00,
2013-02-16 07:11:00,63.4,59.0,29.92,WNW,298,2.5,3.1,86,0.00,,,0.02,TxWx,2013-02-16 12:11:00,
2013-02-16 07:12:00,63.4,59.0,29.92,WNW,298,5.6,6.2,86,0.00,,,0.02,TxWx,2013-02-16 12:12:00,
2013-02-16 07:13:00,63.5,59.0,29.92,West,276,3.1,3.1,87,0.00,,,0.02,TxWx,2013-02-16 12:13:00,
2013-02-16 07:16:00,63.4,59.0,29.92,NNW,343,5.0,5.0,86,0.00,,,0.02,TxWx,2013-02-16 12:16:00,
2013-02-16 07:17:00,63.4,59.0,29.92,NW,321,5.0,5.0,87,0.00,,,0.02,TxWx,2013-02-16 12:17:00,
2013-02-16 07:18:00,63.3,59.0,29.92,West,276,1.9,2.5,86,0.00,,,0.02,TxWx,2013-02-16 12:18:00,
2013-02-16 07:20:00,63.3,59.0,29.92,WNW,298,5.6,5.6,86,0.00,,,0.02,TxWx,2013-02-16 12:20:00,
2013-02-16 07:21:00,63.4,59.0,29.92,West,276,1.9,2.5,87,0.00,,,0.02,TxWx,2013-02-16 12:21:00,
2013-02-16 07:24:00,63.4,59.0,29.92,WNW,298,4.3,4.3,87,0.00,,,0.02,TxWx,2013-02-16 12:24:00,
2013-02-16 07:25:00,63.5,60.0,29.92,West,276,1.9,1.9,87,0.00,,,0.02,TxWx,2013-02-16 12:25:00,
2013-02-16 07:28:00,63.4,59.0,29.92,NNW,343,3.7,4.3,86,0.00,,,0.02,TxWx,2013-02-16 12:28:00,
2013-02-16 07:29:00,63.4,59.0,29.92,NW,321,6.8,6.8,87,0.00,,,0.02,TxWx,2013-02-16 12:29:00,
2013-02-16 07:30:00,63.4,59.0,29.92,NW,321,4.3,4.3,87,0.00,,,0.02,TxWx,2013-02-16 12:30:00,
2013-02-16 07:31:00,63.4,59.0,29.92,WNW,298,4.3,5.0,87,0.00,,,0.02,TxWx,2013-02-16 12:31:00,
2013-02-16 07:33:00,63.4,59.0,29.92,WNW,298,3.1,3.7,87,0.00,,,0.02,TxWx,2013-02-16 12:33:00,
2013-02-16 07:35:00,63.4,59.0,29.92,WNW,298,5.0,5.0,87,0.00,,,0.02,TxWx,2013-02-16 12:35:00,
2013-02-16 07:36:00,63.5,59.0,29.92,WNW,298,3.1,3.1,87,0.00,,,0.02,TxWx,2013-02-16 12:36:00,
2013-02-16 07:38:00,63.3,59.0,29.92,NW,321,3.7,4.3,86,0.00,,,0.02,TxWx,2013-02-16 12:38:00,
2013-02-16 07:41:00,63.3,59.0,29.92,WNW,298,7.4,7.4,86,0.00,,,0.02,TxWx,2013-02-16 12:41:00,
2013-02-16 07:42:00,63.3,59.0,29.92,NNW,343,5.6,6.8,86,0.00,,,0.02,TxWx,2013-02-16 12:42:00,
2013-02-16 07:44:00,63.4,59.0,29.92,NW,321,3.1,3.1,86,0.00,,,0.02,TxWx,2013-02-16 12:44:00,
2013-02-16 07:46:00,63.3,59.0,29.92,NW,321,4.3,5.0,86,0.00,,,0.02,TxWx,2013-02-16 12:46:00,
2013-02-16 07:47:00,63.4,59.0,29.92,NW,321,3.7,4.3,86,0.00,,,0.02,TxWx,2013-02-16 12:47:00,
2013-02-16 07:48:00,63.3,59.0,29.92,North,6,7.4,7.4,86,0.00,,,0.02,TxWx,2013-02-16 12:48:00,
2013-02-16 07:50:00,63.5,59.0,29.92,NNW,343,3.7,3.7,86,0.00,,,0.02,TxWx,2013-02-16 12:50:00,
2013-02-16 07:52:00,63.2,59.0,29.92,NW,321,6.8,8.7,86,0.00,,,0.02,TxWx,2013-02-16 12:52:00,
2013-02-16 07:54:00,63.4,59.0,29.92,WNW,298,5.0,5.0,86,0.00,,,0.02,TxWx,2013-02-16 12:54:00,
2013-02-16 07:57:00,63.1,59.0,29.92,NNW,343,6.2,7.4,86,0.00,,,0.02,TxWx,2013-02-16 12:57:00,
2013-02-16 07:58:00,63.1,59.0,29.92,NW,321,6.2,6.8,86,0.00,,,0.02,TxWx,2013-02-16 12:58:00,
2013-02-16 08:00:00,63.3,59.0,29.92,NNW,343,8.0,9.9,86,0.00,,,0.02,TxWx,2013-02-16 13:00:00,
2013-02-16 08:01:00,63.2,59.0,29.92,WNW,298,5.0,5.0,86,0.00,,,0.02,TxWx,2013-02-16 13:01:00,
2013-02-16 08:02:00,63.1,59.0,29.92,NW,321,4.3,4.3,86,0.00,,,0.02,TxWx,2013-02-16 13:02:00,
2013-02-16 08:05:00,63.2,59.0,29.92,NW,321,3.7,4.3,86,0.00,,,0.02,TxWx,2013-02-16 13:05:00,
2013-02-16 08:06:00,63.2,59.0,29.93,NW,321,3.1,3.1,86,0.00,,,0.02,TxWx,2013-02-16 13:06:00,
2013-02-16 08:07:00,63.4,59.0,29.92,WSW,253,1.9,3.1,87,0.00,,,0.02,TxWx,2013-02-16 13:07:00,
2013-02-16 08:11:00,63.2,59.0,29.93,WNW,298,8.0,8.0,86,0.00,,,0.02,TxWx,2013-02-16 13:11:00,
2013-02-16 08:12:00,63.1,59.0,29.93,NNW,343,6.8,6.8,86,0.00,,,0.02,TxWx,2013-02-16 13:12:00,
2013-02-16 08:13:00,63.2,59.0,29.93,NW,321,4.3,5.6,87,0.00,,,0.02,TxWx,2013-02-16 13:13:00,
2013-02-16 08:17:00,63.1,59.0,29.93,NNW,343,3.1,3.1,86,0.00,,,0.02,TxWx,2013-02-16 13:17:00,
2013-02-16 08:18:00,63.3,59.0,29.93,NNW,343,8.0,8.0,87,0.00,,,0.02,TxWx,2013-02-16 13:18:00,
2013-02-16 08:21:00,63.1,59.0,29.93,NW,321,3.7,5.0,87,0.00,,,0.02,TxWx,2013-02-16 13:21:00,
2013-02-16 08:23:00,63.1,59.0,29.93,WNW,298,3.7,3.7,87,0.00,,,0.02,TxWx,2013-02-16 13:23:00,
2013-02-16 08:25:00,63.1,59.0,29.93,NW,321,3.1,3.1,87,0.00,,,0.02,TxWx,2013-02-16 13:25:00,
2013-02-16 08:28:00,63.1,59.0,29.93,NW,321,3.7,3.7,87,0.00,,,0.02,TxWx,2013-02-16 13:28:00,
2013-02-16 08:30:00,63.2,59.0,29.93,NW,321,3.7,3.7,87,0.00,,,0.02,TxWx,2013-02-16 13:30:00,
2013-02-16 08:31:00,63.3,59.0,29.93,NW,321,5.0,5.0,87,0.00,,,0.02,TxWx,2013-02-16 13:31:00,
2013-02-16 08:35:00,63.4,59.0,29.93,WNW,298,2.5,2.5,87,0.00,,,0.02,TxWx,2013-02-16 13:35:00,
2013-02-16 08:36:00,63.5,60.0,29.93,WNW,298,1.9,1.9,87,0.00,,,0.02,TxWx,2013-02-16 13:36:00,
2013-02-16 08:37:00,63.6,60.0,29.93,NNW,343,5.0,5.0,87,0.00,,,0.02,TxWx,2013-02-16 13:37:00,
2013-02-16 08:40:00,63.5,60.0,29.93,NW,321,5.0,5.0,87,0.00,,,0.02,TxWx,2013-02-16 13:40:00,
2013-02-16 08:41:00,63.5,60.0,29.93,West,276,2.5,2.5,87,0.00,,,0.02,TxWx,2013-02-16 13:41:00,
2013-02-16 08:43:00,63.3,59.0,29.93,West,276,5.6,5.6,87,0.00,,,0.02,TxWx,2013-02-16 13:43:00,
2013-02-16 08:45:00,63.5,59.0,29.93,NW,321,5.0,5.0,87,0.00,,,0.02,TxWx,2013-02-16 13:45:00,
2013-02-16 08:47:00,63.4,59.0,29.93,WNW,298,6.2,6.2,87,0.00,,,0.02,TxWx,2013-02-16 13:47:00,
2013-02-16 08:49:00,63.5,59.0,29.93,WNW,298,5.6,5.6,87,0.00,,,0.02,TxWx,2013-02-16 13:49:00,
2013-02-16 08:51:00,63.4,59.0,29.93,WNW,298,4.3,4.3,87,0.00,,,0.02,TxWx,2013-02-16 13:51:00,
2013-02-16 08:56:00,63.5,59.0,29.94,WNW,298,3.1,3.1,87,0.00,,,0.02,TxWx,2013-02-16 13:56:00,
2013-02-16 08:58:00,63.8,60.0,29.94,NW,321,3.7,4.3,87,0.00,,,0.02,TxWx,2013-02-16 13:58:00,
2013-02-16 09:01:00,63.5,60.0,29.93,NW,321,4.3,5.6,87,0.00,,,0.02,TxWx,2013-02-16 14:01:00,
2013-02-16 09:02:00,63.5,60.0,29.94,WNW,298,5.0,6.2,87,0.00,,,0.02,TxWx,2013-02-16 14:02:00,
2013-02-16 09:03:00,63.5,60.0,29.93,WNW,298,7.4,8.0,87,0.00,,,0.02,TxWx,2013-02-16 14:03:00,
2013-02-16 09:07:00,63.5,60.0,29.93,NNW,343,3.7,4.3,86,0.00,,,0.02,TxWx,2013-02-16 14:07:00,
2013-02-16 09:08:00,63.8,60.0,29.93,WNW,298,5.0,5.0,87,0.00,,,0.02,TxWx,2013-02-16 14:08:00,
2013-02-16 09:09:00,63.6,60.0,29.93,WNW,298,4.3,5.0,87,0.00,,,0.02,TxWx,2013-02-16 14:09:00,
2013-02-16 09:12:00,63.7,60.0,29.94,WNW,298,3.1,3.7,86,0.00,,,0.02,TxWx,2013-02-16 14:12:00,
2013-02-16 09:14:00,63.8,60.0,29.93,NNW,343,4.3,6.2,86,0.00,,,0.02,TxWx,2013-02-16 14:14:00,
2013-02-16 09:19:00,63.9,60.0,29.94,NW,321,3.1,3.7,86,0.00,,,0.02,TxWx,2013-02-16 14:19:00,
2013-02-16 09:20:00,63.8,60.0,29.93,WNW,298,3.1,3.7,86,0.00,,,0.02,TxWx,2013-02-16 14:20:00,
2013-02-16 09:21:00,63.9,60.0,29.93,WNW,298,5.6,5.6,86,0.00,,,0.02,TxWx,2013-02-16 14:21:00,
2013-02-16 09:24:00,64.0,60.0,29.93,West,276,3.1,4.3,86,0.00,,,0.02,TxWx,2013-02-16 14:24:00,
2013-02-16 09:25:00,64.0,60.0,29.93,WNW,298,3.1,3.1,86,0.00,,,0.02,TxWx,2013-02-16 14:25:00,
2013-02-16 09:30:00,64.3,59.0,29.93,NW,321,5.0,5.0,85,0.00,,,0.02,TxWx,2013-02-16 14:30:00,
2013-02-16 09:31:00,64.3,59.0,29.93,WNW,298,3.7,3.7,85,0.00,,,0.02,TxWx,2013-02-16 14:31:00,
2013-02-16 09:32:00,64.3,59.0,29.93,NW,321,5.0,5.6,85,0.00,,,0.02,TxWx,2013-02-16 14:32:00,
2013-02-16 09:35:00,64.1,59.0,29.94,WNW,298,4.3,4.3,84,0.00,,,0.02,TxWx,2013-02-16 14:35:00,
2013-02-16 09:36:00,64.2,59.0,29.94,WNW,298,5.6,6.2,85,0.00,,,0.02,TxWx,2013-02-16 14:36:00,
2013-02-16 09:37:00,64.2,59.0,29.94,West,276,5.6,5.6,85,0.00,,,0.02,TxWx,2013-02-16 14:37:00,
2013-02-16 09:41:00,64.3,59.0,29.94,West,276,5.6,6.2,84,0.00,,,0.02,TxWx,2013-02-16 14:41:00,
2013-02-16 09:42:00,64.4,59.0,29.94,NW,321,3.7,4.3,85,0.00,,,0.02,TxWx,2013-02-16 14:42:00,
2013-02-16 09:46:00,64.7,60.0,29.94,WNW,298,2.5,3.1,85,0.00,,,0.02,TxWx,2013-02-16 14:46:00,
2013-02-16 09:50:00,64.8,60.0,29.94,WNW,298,5.0,5.0,84,0.00,,,0.02,TxWx,2013-02-16 14:50:00,
2013-02-16 09:52:00,64.5,60.0,29.94,WNW,298,6.8,6.8,83,0.00,,,0.02,TxWx,2013-02-16 14:52:00,
2013-02-16 09:53:00,64.5,60.0,29.94,WNW,298,6.2,6.8,83,0.00,,,0.02,TxWx,2013-02-16 14:53:00,
2013-02-16 09:55:00,64.8,60.0,29.94,NW,321,3.1,3.7,83,0.00,,,0.02,TxWx,2013-02-16 14:55:00,
2013-02-16 09:56:00,64.8,60.0,29.94,NNW,343,6.2,6.8,83,0.00,,,0.02,TxWx,2013-02-16 14:56:00,
2013-02-16 09:57:00,65.0,60.0,29.94,NNW,343,3.1,3.1,83,0.00,,,0.02,TxWx,2013-02-16 14:57:00,
2013-02-16 09:59:00,64.9,59.0,29.94,North,6,4.3,5.6,82,0.00,,,0.02,TxWx,2013-02-16 14:59:00,
2013-02-16 10:01:00,65.2,59.0,29.94,WNW,298,3.1,3.7,82,0.00,,,0.02,TxWx,2013-02-16 15:01:00,
2013-02-16 10:02:00,65.5,60.0,29.94,WNW,298,4.3,5.6,83,0.00,,,0.02,TxWx,2013-02-16 15:02:00,
2013-02-16 10:04:00,65.5,60.0,29.94,NW,321,6.2,6.2,83,0.00,,,0.02,TxWx,2013-02-16 15:04:00,
2013-02-16 10:06:00,65.4,60.0,29.94,West,276,7.4,8.0,83,0.00,,,0.02,TxWx,2013-02-16 15:06:00,
2013-02-16 10:08:00,65.4,59.0,29.94,NW,321,6.2,6.2,82,0.00,,,0.02,TxWx,2013-02-16 15:08:00,
2013-02-16 10:10:00,65.2,59.0,29.94,West,276,4.3,4.3,82,0.00,,,0.02,TxWx,2013-02-16 15:10:00,
2013-02-16 10:12:00,65.1,59.0,29.94,West,276,5.6,5.6,82,0.00,,,0.02,TxWx,2013-02-16 15:12:00,
2013-02-16 10:13:00,65.1,59.0,29.94,WNW,298,4.3,4.3,82,0.00,,,0.02,TxWx,2013-02-16 15:13:00,
2013-02-16 10:18:00,65.3,59.0,29.94,NW,321,3.7,4.3,82,0.00,,,0.02,TxWx,2013-02-16 15:18:00,
2013-02-16 10:19:00,65.2,59.0,29.94,WNW,298,7.4,9.3,82,0.00,,,0.02,TxWx,2013-02-16 15:19:00,
2013-02-16 10:23:00,65.3,59.0,29.94,WNW,298,6.8,7.4,81,0.00,,,0.02,TxWx,2013-02-16 15:23:00,
2013-02-16 10:25:00,65.3,59.0,29.94,WNW,298,6.2,6.2,80,0.00,,,0.02,TxWx,2013-02-16 15:25:00,
2013-02-16 10:26:00,65.4,59.0,29.94,WNW,298,5.6,7.4,80,0.00,,,0.02,TxWx,2013-02-16 15:26:00,
2013-02-16 10:28:00,65.3,58.0,29.94,West,276,6.8,6.8,80,0.00,,,0.02,TxWx,2013-02-16 15:28:00,
2013-02-16 10:29:00,65.3,58.0,29.94,WNW,298,10.5,10.5,80,0.00,,,0.02,TxWx,2013-02-16 15:29:00,
2013-02-16 10:31:00,65.5,59.0,29.94,West,276,8.0,9.9,80,0.00,,,0.02,TxWx,2013-02-16 15:31:00,
2013-02-16 10:34:00,65.6,60.0,29.94,NW,321,6.2,6.8,80,0.00,,,0.02,TxWx,2013-02-16 15:34:00,
2013-02-16 10:37:00,65.7,59.0,29.94,WNW,298,6.2,6.2,80,0.00,,,0.02,TxWx,2013-02-16 15:37:00,
2013-02-16 10:38:00,65.7,59.0,29.94,NW,321,4.3,5.6,80,0.00,,,0.02,TxWx,2013-02-16 15:38:00,
2013-02-16 10:39:00,66.0,60.0,29.95,West,276,3.7,3.7,80,0.00,,,0.02,TxWx,2013-02-16 15:39:00,
2013-02-16 10:42:00,65.8,59.0,29.95,West,276,6.8,6.8,79,0.00,,,0.02,TxWx,2013-02-16 15:42:00,
2013-02-16 10:43:00,66.0,60.0,29.94,WNW,298,5.0,5.0,80,0.00,,,0.02,TxWx,2013-02-16 15:43:00,
2013-02-16 10:44:00,66.1,60.0,29.95,WSW,253,6.2,6.2,80,0.00,,,0.02,TxWx,2013-02-16 15:44:00,
2013-02-16 10:47:00,66.0,59.0,29.94,WNW,298,7.4,7.4,80,0.00,,,0.02,TxWx,2013-02-16 15:47:00,
2013-02-16 10:48:00,66.2,59.0,29.94,WNW,298,6.8,7.4,79,0.00,,,0.02,TxWx,2013-02-16 15:48:00,
2013-02-16 10:50:00,66.3,59.0,29.94,WNW,298,10.5,10.5,79,0.00,,,0.02,TxWx,2013-02-16 15:50:00,
2013-02-16 10:52:00,66.2,59.0,29.95,West,276,8.0,11.8,78,0.00,,,0.02,TxWx,2013-02-16 15:52:00,
2013-02-16 10:55:00,66.2,59.0,29.94,WNW,298,6.2,7.4,78,0.00,,,0.02,TxWx,2013-02-16 15:55:00,
2013-02-16 10:57:00,66.5,60.0,29.95,NW,321,4.3,5.0,78,0.00,,,0.02,TxWx,2013-02-16 15:57:00,
2013-02-16 10:58:00,66.6,60.0,29.95,NW,321,4.3,4.3,78,0.00,,,0.02,TxWx,2013-02-16 15:58:00,
2013-02-16 11:00:00,66.6,60.0,29.95,West,276,7.4,8.7,77,0.00,,,0.02,TxWx,2013-02-16 16:00:00,
2013-02-16 11:01:00,66.5,59.0,29.95,NW,321,6.8,7.4,77,0.00,,,0.02,TxWx,2013-02-16 16:01:00,
2013-02-16 11:04:00,66.6,60.0,29.95,West,276,6.8,6.8,77,0.00,,,0.02,TxWx,2013-02-16 16:04:00,
2013-02-16 11:05:00,66.9,60.0,29.95,West,276,8.7,8.7,78,0.00,,,0.02,TxWx,2013-02-16 16:05:00,
2013-02-16 11:06:00,66.6,59.0,29.94,WNW,298,6.8,7.4,77,0.00,,,0.02,TxWx,2013-02-16 16:06:00,
2013-02-16 11:09:00,67.0,60.0,29.95,WNW,298,7.4,8.0,78,0.00,,,0.02,TxWx,2013-02-16 16:09:00,
2013-02-16 11:11:00,67.0,60.0,29.95,WNW,298,6.8,8.0,78,0.00,,,0.02,TxWx,2013-02-16 16:11:00,
2013-02-16 11:12:00,67.0,59.0,29.94,West,276,11.1,11.8,77,0.00,,,0.02,TxWx,2013-02-16 16:12:00,
2013-02-16 11:15:00,66.7,59.0,29.95,WNW,298,11.1,11.8,77,0.00,,,0.02,TxWx,2013-02-16 16:15:00,
2013-02-16 11:17:00,67.1,60.0,29.95,NW,321,7.4,9.3,78,0.00,,,0.02,TxWx,2013-02-16 16:17:00,
2013-02-16 11:19:00,67.2,60.0,29.95,West,276,8.7,8.7,78,0.00,,,0.02,TxWx,2013-02-16 16:19:00,
2013-02-16 11:20:00,67.1,60.0,29.94,West,276,9.3,11.1,77,0.00,,,0.02,TxWx,2013-02-16 16:20:00,
2013-02-16 11:23:00,67.0,59.0,29.94,WNW,298,9.9,9.9,76,0.00,,,0.02,TxWx,2013-02-16 16:23:00,
2013-02-16 11:25:00,67.0,59.0,29.94,West,276,11.1,11.8,77,0.00,,,0.02,TxWx,2013-02-16 16:25:00,
2013-02-16 11:27:00,66.8,59.0,29.94,NNW,343,8.0,8.0,76,0.00,,,0.02,TxWx,2013-02-16 16:27:00,
2013-02-16 11:31:00,66.9,59.0,29.94,NW,321,11.1,11.8,76,0.00,,,0.02,TxWx,2013-02-16 16:31:00,
2013-02-16 11:32:00,66.9,59.0,29.94,West,276,18.6,18.6,77,0.00,,,0.02,TxWx,2013-02-16 16:32:00,
2013-02-16 11:37:00,66.7,59.0,29.94,West,276,13.0,13.6,77,0.00,,,0.02,TxWx,2013-02-16 16:37:00,
2013-02-16 11:38:00,66.8,59.0,29.94,WNW,298,12.4,12.4,77,0.00,,,0.02,TxWx,2013-02-16 16:38:00,
2013-02-16 11:39:00,67.2,60.0,29.94,WSW,253,12.4,12.4,78,0.00,,,0.02,TxWx,2013-02-16 16:39:00,
2013-02-16 11:43:00,67.6,60.0,29.94,NW,321,5.6,6.8,76,0.00,,,0.02,TxWx,2013-02-16 16:43:00,
2013-02-16 11:45:00,67.3,58.0,29.94,WNW,298,13.0,13.0,74,0.00,,,0.02,TxWx,2013-02-16 16:45:00,
2013-02-16 11:47:00,67.5,60.0,29.94,WNW,298,12.4,13.6,75,0.00,,,0.02,TxWx,2013-02-16 16:47:00,
2013-02-16 11:49:00,67.6,59.0,29.94,West,276,11.8,13.6,74,0.00,,,0.02,TxWx,2013-02-16 16:49:00,
2013-02-16 11:51:00,67.1,58.0,29.94,WNW,298,12.4,12.4,73,0.00,,,0.02,TxWx,2013-02-16 16:51:00,
2013-02-16 11:52:00,67.3,58.0,29.94,West,276,14.9,14.9,74,0.00,,,0.02,TxWx,2013-02-16 16:52:00,
2013-02-16 11:53:00,67.7,60.0,29.94,West,276,12.4,12.4,75,0.00,,,0.02,TxWx,2013-02-16 16:53:00,
2013-02-16 11:55:00,67.4,58.0,29.93,West,276,10.5,10.5,74,0.00,,,0.02,TxWx,2013-02-16 16:55:00,
2013-02-16 11:56:00,67.7,60.0,29.93,West,276,14.2,14.2,76,0.00,,,0.02,TxWx,2013-02-16 16:56:00,
2013-02-16 11:58:00,67.1,58.0,29.93,WNW,298,9.9,10.5,73,0.00,,,0.02,TxWx,2013-02-16 16:58:00,
2013-02-16 11:59:00,67.1,58.0,29.94,West,276,14.2,14.2,73,0.00,,,0.02,TxWx,2013-02-16 16:59:00,
2013-02-16 12:01:00,67.6,60.0,29.93,West,276,14.2,14.2,75,0.00,,,0.02,TxWx,2013-02-16 17:01:00,
2013-02-16 12:03:00,67.7,60.0,29.93,WSW,253,14.2,14.2,75,0.00,,,0.02,TxWx,2013-02-16 17:03:00,
2013-02-16 12:06:00,67.7,59.0,29.93,WNW,298,13.0,13.0,74,0.00,,,0.02,TxWx,2013-02-16 17:06:00,
2013-02-16 12:07:00,67.9,59.0,29.93,NW,321,9.3,10.5,74,0.00,,,0.02,TxWx,2013-02-16 17:07:00,
2013-02-16 12:08:00,68.5,60.0,29.93,West,276,12.4,12.4,75,0.00,,,0.02,TxWx,2013-02-16 17:08:00,
2013-02-16 12:09:00,68.4,59.0,29.93,WSW,253,8.0,11.1,74,0.00,,,0.02,TxWx,2013-02-16 17:09:00,
2013-02-16 12:12:00,68.4,59.0,29.93,WNW,298,14.2,16.1,73,0.00,,,0.02,TxWx,2013-02-16 17:12:00,
2013-02-16 12:14:00,68.0,58.0,29.93,West,276,11.8,11.8,71,0.00,,,0.02,TxWx,2013-02-16 17:14:00,
2013-02-16 12:16:00,67.9,57.0,29.93,WNW,298,13.6,14.9,69,0.00,,,0.02,TxWx,2013-02-16 17:16:00,
2013-02-16 12:18:00,68.3,58.0,29.93,West,276,13.6,13.6,70,0.00,,,0.02,TxWx,2013-02-16 17:18:00,
2013-02-16 12:21:00,68.5,58.0,29.92,West,276,17.3,17.3,69,0.00,,,0.02,TxWx,2013-02-16 17:21:00,
2013-02-16 12:23:00,68.7,57.0,29.92,West,276,14.9,15.5,67,0.00,,,0.02,TxWx,2013-02-16 17:23:00,
2013-02-16 12:24:00,68.8,58.0,29.92,WNW,298,16.1,17.3,67,0.00,,,0.02,TxWx,2013-02-16 17:24:00,
2013-02-16 12:28:00,68.7,57.0,29.92,WNW,298,10.5,11.1,65,0.00,,,0.02,TxWx,2013-02-16 17:28:00,
2013-02-16 12:29:00,68.6,56.0,29.92,NW,321,12.4,13.0,64,0.00,,,0.02,TxWx,2013-02-16 17:29:00,
2013-02-16 12:30:00,68.9,57.0,29.92,WNW,298,13.0,15.5,66,0.00,,,0.02,TxWx,2013-02-16 17:30:00,
2013-02-16 12:31:00,68.9,57.0,29.92,West,276,14.2,14.9,66,0.00,,,0.02,TxWx,2013-02-16 17:31:00,
2013-02-16 12:34:00,68.7,58.0,29.92,WNW,298,11.1,11.1,67,0.00,,,0.02,TxWx,2013-02-16 17:34:00,
2013-02-16 12:36:00,68.7,58.0,29.92,NNW,343,9.3,10.5,69,0.00,,,0.02,TxWx,2013-02-16 17:36:00,
2013-02-16 12:37:00,68.6,59.0,29.92,West,276,13.0,13.6,70,0.00,,,0.02,TxWx,2013-02-16 17:37:00,
2013-02-16 12:39:00,68.7,59.0,29.92,WNW,298,13.6,13.6,72,0.00,,,0.02,TxWx,2013-02-16 17:39:00,
2013-02-16 12:41:00,68.8,59.0,29.92,WNW,298,14.2,14.2,72,0.00,,,0.02,TxWx,2013-02-16 17:41:00,
2013-02-16 12:42:00,68.5,57.0,29.92,West,276,13.0,13.0,69,0.00,,,0.02,TxWx,2013-02-16 17:42:00,
2013-02-16 12:44:00,69.0,58.0,29.92,West,276,14.9,14.9,67,0.00,,,0.02,TxWx,2013-02-16 17:44:00,
2013-02-16 12:46:00,69.4,59.0,29.91,WNW,298,8.7,8.7,70,0.00,,,0.02,TxWx,2013-02-16 17:46:00,
2013-02-16 12:47:00,69.4,59.0,29.91,WNW,298,7.4,9.3,71,0.00,,,0.02,TxWx,2013-02-16 17:47:00,
2013-02-16 12:49:00,69.0,54.0,29.91,West,276,22.9,23.5,59,0.00,,,0.02,TxWx,2013-02-16 17:49:00,
2013-02-16 12:51:00,68.8,53.0,29.91,WNW,298,16.7,21.0,56,0.00,,,0.02,TxWx,2013-02-16 17:51:00,
2013-02-16 12:52:00,68.9,54.0,29.91,WNW,298,14.2,14.2,60,0.00,,,0.02,TxWx,2013-02-16 17:52:00,
2013-02-16 12:53:00,69.3,56.0,29.91,West,276,11.8,12.4,65,0.00,,,0.02,TxWx,2013-02-16 17:53:00,
2013-02-16 12:56:00,68.8,56.0,29.91,WNW,298,12.4,12.4,64,0.00,,,0.02,TxWx,2013-02-16 17:56:00,
2013-02-16 12:57:00,68.8,56.0,29.91,WSW,253,11.8,11.8,63,0.00,,,0.02,TxWx,2013-02-16 17:57:00,
2013-02-16 12:58:00,68.9,55.0,29.91,West,276,11.1,12.4,62,0.00,,,0.02,TxWx,2013-02-16 17:58:00,
2013-02-16 12:59:00,69.1,56.0,29.91,West,276,17.3,17.3,63,0.00,,,0.02,TxWx,2013-02-16 17:59:00,
2013-02-16 13:01:00,68.9,54.0,29.91,West,276,17.3,17.9,60,0.00,,,0.02,TxWx,2013-02-16 18:01:00,
2013-02-16 13:03:00,68.9,55.0,29.91,West,276,22.3,22.9,61,0.00,,,0.02,TxWx,2013-02-16 18:03:00,
2013-02-16 13:04:00,69.1,54.0,29.91,West,276,16.7,16.7,60,0.00,,,0.02,TxWx,2013-02-16 18:04:00,
2013-02-16 13:05:00,68.9,55.0,29.91,West,276,16.7,19.8,61,0.00,,,0.02,TxWx,2013-02-16 18:05:00,
2013-02-16 13:08:00,69.4,54.0,29.90,West,276,14.9,14.9,59,0.00,,,0.02,TxWx,2013-02-16 18:08:00,
2013-02-16 13:11:00,69.1,54.0,29.91,WNW,298,14.9,16.1,60,0.00,,,0.02,TxWx,2013-02-16 18:11:00,
2013-02-16 13:12:00,69.2,55.0,29.90,NW,321,14.2,14.2,61,0.00,,,0.02,TxWx,2013-02-16 18:12:00,
2013-02-16 13:13:00,69.4,54.0,29.90,WNW,298,11.1,11.1,59,0.00,,,0.02,TxWx,2013-02-16 18:13:00,
2013-02-16 13:14:00,69.3,55.0,29.90,West,276,17.3,21.0,61,0.00,,,0.02,TxWx,2013-02-16 18:14:00,
2013-02-16 13:16:00,69.3,56.0,29.90,WNW,298,13.0,14.9,63,0.00,,,0.02,TxWx,2013-02-16 18:16:00,
2013-02-16 13:18:00,69.3,55.0,29.90,West,276,23.5,23.5,62,0.00,,,0.02,TxWx,2013-02-16 18:18:00,
2013-02-16 13:19:00,69.2,55.0,29.90,West,276,14.2,15.5,61,0.00,,,0.02,TxWx,2013-02-16 18:19:00,
2013-02-16 13:21:00,69.3,55.0,29.90,WNW,298,14.9,14.9,62,0.00,,,0.02,TxWx,2013-02-16 18:21:00,
2013-02-16 13:24:00,69.3,54.0,29.90,West,276,16.1,16.1,59,0.00,,,0.02,TxWx,2013-02-16 18:24:00,
2013-02-16 13:25:00,69.4,54.0,29.90,West,276,14.9,14.9,59,0.00,,,0.02,TxWx,2013-02-16 18:25:00,
2013-02-16 13:29:00,69.0,51.0,29.90,West,276,22.9,22.9,53,0.00,,,0.02,TxWx,2013-02-16 18:29:00,
2013-02-16 13:30:00,69.1,52.0,29.90,WNW,298,12.4,15.5,54,0.00,,,0.02,TxWx,2013-02-16 18:30:00,
2013-02-16 13:31:00,69.2,50.0,29.90,WNW,298,18.6,19.2,51,0.00,,,0.02,TxWx,2013-02-16 18:31:00,
2013-02-16 13:35:00,68.6,52.0,29.90,WNW,298,20.4,24.1,55,0.00,,,0.02,TxWx,2013-02-16 18:35:00,
2013-02-16 13:36:00,68.8,52.0,29.90,West,276,21.0,22.3,56,0.00,,,0.02,TxWx,2013-02-16 18:36:00,
2013-02-16 13:39:00,69.0,52.0,29.89,West,276,16.7,17.3,54,0.00,,,0.02,TxWx,2013-02-16 18:39:00,
2013-02-16 13:40:00,69.3,53.0,29.90,WNW,298,11.1,11.1,57,0.00,,,0.02,TxWx,2013-02-16 18:40:00,
2013-02-16 13:41:00,69.2,54.0,29.90,West,276,21.0,21.0,58,0.00,,,0.02,TxWx,2013-02-16 18:41:00,
2013-02-16 13:42:00,68.7,53.0,29.89,West,276,21.7,21.7,57,0.00,,,0.02,TxWx,2013-02-16 18:42:00,
2013-02-16 13:45:00,68.8,52.0,29.89,West,276,13.6,14.2,55,0.00,,,0.02,TxWx,2013-02-16 18:45:00,
2013-02-16 13:46:00,68.7,52.0,29.89,WNW,298,21.0,21.7,56,0.00,,,0.02,TxWx,2013-02-16 18:46:00,
2013-02-16 13:48:00,68.9,54.0,29.89,West,276,16.1,17.3,58,0.00,,,0.02,TxWx,2013-02-16 18:48:00,
2013-02-16 13:51:00,69.0,52.0,29.89,West,276,21.7,22.9,56,0.00,,,0.02,TxWx,2013-02-16 18:51:00,
2013-02-16 13:53:00,68.6,51.0,29.89,West,276,16.7,18.6,53,0.00,,,0.02,TxWx,2013-02-16 18:53:00,
2013-02-16 13:54:00,68.7,52.0,29.89,WNW,298,19.8,19.8,54,0.00,,,0.02,TxWx,2013-02-16 18:54:00,
2013-02-16 13:57:00,68.6,52.0,29.89,West,276,24.1,25.4,56,0.00,,,0.02,TxWx,2013-02-16 18:57:00,
2013-02-16 13:58:00,68.5,52.0,29.89,West,276,15.5,15.5,55,0.00,,,0.02,TxWx,2013-02-16 18:58:00,
2013-02-16 14:02:00,68.5,51.0,29.89,West,276,14.9,17.3,53,0.00,,,0.02,TxWx,2013-02-16 19:02:00,
2013-02-16 14:03:00,68.5,52.0,29.89,West,276,10.5,12.4,54,0.00,,,0.02,TxWx,2013-02-16 19:03:00,
2013-02-16 14:05:00,68.7,53.0,29.90,WNW,298,15.5,16.1,58,0.00,,,0.02,TxWx,2013-02-16 19:05:00,
2013-02-16 14:08:00,68.5,53.0,29.89,WNW,298,13.0,14.9,56,0.00,,,0.02,TxWx,2013-02-16 19:08:00,
2013-02-16 14:09:00,68.5,52.0,29.89,WNW,298,13.6,13.6,56,0.00,,,0.02,TxWx,2013-02-16 19:09:00,
2013-02-16 14:11:00,68.4,49.0,29.90,NW,321,14.2,14.9,50,0.00,,,0.02,TxWx,2013-02-16 19:11:00,
2013-02-16 14:13:00,68.5,51.0,29.89,WNW,298,17.3,17.3,52,0.00,,,0.02,TxWx,2013-02-16 19:13:00,
2013-02-16 14:14:00,68.6,52.0,29.90,West,276,16.1,16.7,54,0.00,,,0.02,TxWx,2013-02-16 19:14:00,
2013-02-16 14:15:00,68.9,52.0,29.89,West,276,11.1,11.8,54,0.00,,,0.02,TxWx,2013-02-16 19:15:00,
2013-02-16 14:20:00,68.9,47.0,29.89,WNW,298,17.3,21.0,46,0.00,,,0.03,TxWx,2013-02-16 19:20:00,
2013-02-16 14:22:00,69.1,47.0,29.89,NW,321,19.2,19.2,46,0.00,,,0.03,TxWx,2013-02-16 19:22:00,
2013-02-16 14:25:00,69.0,48.0,29.89,WNW,298,20.4,20.4,48,0.06,,,0.05,TxWx,2013-02-16 19:25:00,
2013-02-16 14:26:00,68.8,46.0,29.89,West,276,16.7,17.9,45,0.06,,,0.05,TxWx,2013-02-16 19:26:00,
2013-02-16 14:28:00,68.7,50.0,29.89,WNW,298,13.6,13.6,50,0.06,,,0.05,TxWx,2013-02-16 19:28:00,
2013-02-16 14:30:00,68.9,50.0,29.90,West,276,13.6,13.6,51,0.06,,,0.05,TxWx,2013-02-16 19:30:00,
2013-02-16 14:31:00,68.5,48.0,29.89,NW,321,12.4,15.5,48,0.06,,,0.05,TxWx,2013-02-16 19:31:00,
2013-02-16 14:33:00,68.5,48.0,29.89,WNW,298,15.5,15.5,47,0.12,,,0.05,TxWx,2013-02-16 19:33:00,
2013-02-16 14:35:00,68.6,50.0,29.89,WNW,298,9.3,12.4,52,0.12,,,0.05,TxWx,2013-02-16 19:35:00,
2013-02-16 14:36:00,68.4,48.0,29.89,NW,321,14.9,17.3,49,0.12,,,0.05,TxWx,2013-02-16 19:36:00,
2013-02-16 14:37:00,68.3,49.0,29.89,West,276,14.2,16.1,51,0.12,,,0.05,TxWx,2013-02-16 19:37:00,
2013-02-16 14:38:00,68.1,47.0,29.89,WNW,298,12.4,13.6,48,0.12,,,0.05,TxWx,2013-02-16 19:38:00,
2013-02-16 14:42:00,68.0,48.0,29.89,WNW,298,11.8,11.8,49,0.12,,,0.05,TxWx,2013-02-16 19:42:00,
2013-02-16 14:43:00,68.3,48.0,29.89,West,276,21.0,21.0,50,0.00,,,0.06,TxWx,2013-02-16 19:43:00,
2013-02-16 14:45:00,68.1,48.0,29.89,WNW,298,16.7,19.8,49,0.00,,,0.06,TxWx,2013-02-16 19:45:00,
2013-02-16 14:47:00,67.9,47.0,29.89,West,276,17.3,19.8,47,0.00,,,0.06,TxWx,2013-02-16 19:47:00,
2013-02-16 14:49:00,68.0,48.0,29.89,West,276,24.8,24.8,49,0.00,,,0.06,TxWx,2013-02-16 19:49:00,
2013-02-16 14:52:00,68.3,49.0,29.89,WNW,298,13.6,13.6,51,0.00,,,0.06,TxWx,2013-02-16 19:52:00,
2013-02-16 14:53:00,68.5,50.0,29.89,WNW,298,11.1,11.1,52,0.06,,,0.06,TxWx,2013-02-16 19:53:00,
2013-02-16 14:54:00,68.7,50.0,29.89,West,276,13.0,14.2,50,0.06,,,0.06,TxWx,2013-02-16 19:54:00,
2013-02-16 14:57:00,68.9,48.0,29.89,WSW,253,16.1,16.1,48,0.06,,,0.06,TxWx,2013-02-16 19:57:00,
2013-02-16 14:58:00,69.2,48.0,29.89,WNW,298,11.8,13.0,48,0.06,,,0.06,TxWx,2013-02-16 19:58:00,
2013-02-16 15:02:00,68.6,47.0,29.89,WNW,298,20.4,20.4,45,0.06,,,0.06,TxWx,2013-02-16 20:02:00,
2013-02-16 15:03:00,68.6,48.0,29.89,WNW,298,18.6,26.0,48,0.00,,,0.06,TxWx,2013-02-16 20:03:00,
2013-02-16 15:04:00,68.6,48.0,29.89,WNW,298,15.5,17.3,48,0.00,,,0.06,TxWx,2013-02-16 20:04:00,
2013-02-16 15:07:00,68.6,48.0,29.90,WNW,298,16.7,18.6,47,0.00,,,0.06,TxWx,2013-02-16 20:07:00,
2013-02-16 15:08:00,68.7,49.0,29.89,West,276,16.1,18.6,49,0.00,,,0.06,TxWx,2013-02-16 20:08:00,
2013-02-16 15:10:00,68.7,48.0,29.89,WNW,298,20.4,20.4,48,0.00,,,0.06,TxWx,2013-02-16 20:10:00,
2013-02-16 15:13:00,69.1,49.0,29.89,WNW,298,14.9,18.6,49,0.00,,,0.06,TxWx,2013-02-16 20:13:00,
2013-02-16 15:16:00,69.0,48.0,29.90,WNW,298,14.9,16.7,47,0.00,,,0.06,TxWx,2013-02-16 20:16:00,
2013-02-16 15:19:00,69.0,48.0,29.90,WNW,298,12.4,12.4,47,0.00,,,0.06,TxWx,2013-02-16 20:19:00,
2013-02-16 15:22:00,69.6,50.0,29.89,WNW,298,13.6,14.2,49,0.00,,,0.06,TxWx,2013-02-16 20:22:00,
2013-02-16 15:24:00,68.9,47.0,29.89,West,276,14.9,17.3,46,0.00,,,0.06,TxWx,2013-02-16 20:24:00,
2013-02-16 15:26:00,68.6,48.0,29.89,NW,321,17.3,17.3,47,0.00,,,0.06,TxWx,2013-02-16 20:26:00,
2013-02-16 15:27:00,68.5,47.0,29.89,NNW,343,16.1,16.7,46,0.00,,,0.06,TxWx,2013-02-16 20:27:00,
2013-02-16 15:29:00,68.5,47.0,29.90,NW,321,16.1,19.2,47,0.00,,,0.07,TxWx,2013-02-16 20:29:00,
2013-02-16 15:31:00,68.5,49.0,29.90,WNW,298,15.5,16.7,49,0.00,,,0.07,TxWx,2013-02-16 20:31:00,
2013-02-16 15:32:00,68.6,49.0,29.90,WNW,298,13.6,13.6,49,0.00,,,0.07,TxWx,2013-02-16 20:32:00,
2013-02-16 15:33:00,68.3,46.0,29.90,West,276,19.8,19.8,46,0.06,,,0.07,TxWx,2013-02-16 20:33:00,
2013-02-16 15:34:00,68.3,47.0,29.90,West,276,19.8,20.4,48,0.06,,,0.07,TxWx,2013-02-16 20:34:00,
2013-02-16 15:38:00,68.6,50.0,29.90,West,276,20.4,22.3,51,0.06,,,0.07,TxWx,2013-02-16 20:38:00,
2013-02-16 15:39:00,68.5,48.0,29.90,NNW,343,18.6,26.0,48,0.06,,,0.07,TxWx,2013-02-16 20:39:00,
2013-02-16 15:41:00,68.4,48.0,29.90,WNW,298,16.7,16.7,50,0.06,,,0.07,TxWx,2013-02-16 20:41:00,
2013-02-16 15:43:00,68.0,45.0,29.90,WNW,298,14.2,14.2,44,0.00,,,0.07,TxWx,2013-02-16 20:43:00,
2013-02-16 15:46:00,68.0,48.0,29.90,NW,321,17.3,17.3,49,0.00,,,0.07,TxWx,2013-02-16 20:46:00,
2013-02-16 15:48:00,67.9,48.0,29.90,WNW,298,18.6,18.6,48,0.00,,,0.07,TxWx,2013-02-16 20:48:00,
2013-02-16 15:51:00,68.1,50.0,29.91,WNW,298,9.9,10.5,53,0.00,,,0.07,TxWx,2013-02-16 20:51:00,
2013-02-16 15:52:00,67.9,48.0,29.91,WNW,298,11.8,14.9,49,0.00,,,0.07,TxWx,2013-02-16 20:52:00,
2013-02-16 15:54:00,67.7,46.0,29.91,NW,321,16.7,16.7,46,0.00,,,0.07,TxWx,2013-02-16 20:54:00,
2013-02-16 15:57:00,67.6,48.0,29.91,WNW,298,16.1,17.9,48,0.00,,,0.07,TxWx,2013-02-16 20:57:00,
2013-02-16 15:59:00,67.4,46.0,29.91,WNW,298,20.4,21.7,47,0.00,,,0.08,TxWx,2013-02-16 20:59:00,
2013-02-16 16:02:00,67.3,47.0,29.91,West,276,14.2,16.1,48,0.00,,,0.08,TxWx,2013-02-16 21:02:00,
2013-02-16 16:04:00,67.3,46.0,29.91,WNW,298,17.9,20.4,47,0.06,,,0.08,TxWx,2013-02-16 21:04:00,
2013-02-16 16:08:00,67.5,48.0,29.91,NW,321,16.1,16.1,50,0.06,,,0.10,TxWx,2013-02-16 21:08:00,
2013-02-16 16:09:00,67.5,47.0,29.91,WNW,298,9.3,9.3,49,0.06,,,0.10,TxWx,2013-02-16 21:09:00,
2013-02-16 16:14:00,67.5,47.0,29.91,WNW,298,12.4,12.4,48,0.12,,,0.10,TxWx,2013-02-16 21:14:00,
2013-02-16 16:18:00,67.5,46.0,29.91,WNW,298,16.1,17.3,47,0.12,,,0.11,TxWx,2013-02-16 21:18:00,
2013-02-16 16:19:00,67.7,49.0,29.92,WNW,298,16.1,17.3,50,0.12,,,0.11,TxWx,2013-02-16 21:19:00,
2013-02-16 16:21:00,67.5,49.0,29.91,West,276,14.2,16.1,50,0.12,,,0.11,TxWx,2013-02-16 21:21:00,
2013-02-16 16:23:00,67.4,46.0,29.91,NW,321,17.9,21.0,48,0.06,,,0.11,TxWx,2013-02-16 21:23:00,
2013-02-16 16:24:00,67.4,48.0,29.92,West,276,13.6,16.7,50,0.06,,,0.11,TxWx,2013-02-16 21:24:00,
2013-02-16 16:26:00,67.5,49.0,29.92,NW,321,10.5,11.1,52,0.06,,,0.11,TxWx,2013-02-16 21:26:00,
2013-02-16 16:27:00,67.4,47.0,29.91,WNW,298,10.5,11.8,50,0.06,,,0.11,TxWx,2013-02-16 21:27:00,
2013-02-16 16:29:00,67.5,49.0,29.91,West,276,13.6,14.2,51,0.06,,,0.11,TxWx,2013-02-16 21:29:00,
2013-02-16 16:31:00,67.5,48.0,29.91,West,276,12.4,17.3,52,0.06,,,0.11,TxWx,2013-02-16 21:31:00,
2013-02-16 16:36:00,67.5,48.0,29.91,WNW,298,16.1,16.1,50,0.00,,,0.11,TxWx,2013-02-16 21:36:00,
2013-02-16 16:37:00,67.5,49.0,29.91,WNW,298,14.9,15.5,52,0.00,,,0.11,TxWx,2013-02-16 21:37:00,
2013-02-16 16:38:00,67.6,50.0,29.91,WNW,298,15.5,15.5,52,0.00,,,0.11,TxWx,2013-02-16 21:38:00,
2013-02-16 16:41:00,67.8,49.0,29.91,West,276,7.4,9.9,50,0.00,,,0.11,TxWx,2013-02-16 21:41:00,
2013-02-16 16:42:00,67.8,49.0,29.91,WNW,298,21.7,21.7,50,0.00,,,0.11,TxWx,2013-02-16 21:42:00,
2013-02-16 16:43:00,67.8,48.0,29.92,WNW,298,24.8,24.8,49,0.06,,,0.12,TxWx,2013-02-16 21:43:00,
2013-02-16 16:48:00,67.8,48.0,29.91,WNW,298,12.4,13.0,50,0.06,,,0.12,TxWx,2013-02-16 21:48:00,
2013-02-16 16:51:00,67.9,47.0,29.91,WNW,298,18.6,18.6,47,0.06,,,0.12,TxWx,2013-02-16 21:51:00,
2013-02-16 16:53:00,67.9,47.0,29.91,NW,321,19.8,19.8,48,0.06,,,0.13,TxWx,2013-02-16 21:53:00,
2013-02-16 16:56:00,67.9,47.0,29.91,NW,321,15.5,16.7,47,0.06,,,0.13,TxWx,2013-02-16 21:56:00,
2013-02-16 16:59:00,67.9,47.0,29.91,WNW,298,16.1,16.1,47,0.06,,,0.13,TxWx,2013-02-16 21:59:00,
2013-02-16 17:00:00,67.8,46.0,29.92,WNW,298,18.6,18.6,45,0.06,,,0.13,TxWx,2013-02-16 22:00:00,
2013-02-16 17:03:00,67.7,46.0,29.92,NW,321,18.6,21.7,45,0.00,,,0.13,TxWx,2013-02-16 22:03:00,
2013-02-16 17:05:00,67.8,48.0,29.92,WNW,298,14.2,14.2,48,0.00,,,0.13,TxWx,2013-02-16 22:05:00,
2013-02-16 17:07:00,67.8,48.0,29.92,WNW,298,13.0,13.0,48,0.00,,,0.13,TxWx,2013-02-16 22:07:00,
2013-02-16 17:08:00,67.8,46.0,29.92,WNW,298,16.1,17.9,46,0.00,,,0.13,TxWx,2013-02-16 22:08:00,
2013-02-16 17:11:00,67.8,49.0,29.92,NW,321,9.3,11.1,50,0.00,,,0.13,TxWx,2013-02-16 22:11:00,
2013-02-16 17:12:00,67.9,48.0,29.92,WNW,298,10.5,10.5,49,0.00,,,0.13,TxWx,2013-02-16 22:12:00,
2013-02-16 17:13:00,67.9,49.0,29.92,WNW,298,11.1,11.1,51,0.00,,,0.13,TxWx,2013-02-16 22:13:00,
2013-02-16 17:18:00,67.7,47.0,29.92,West,276,24.1,24.1,48,0.00,,,0.18,TxWx,2013-02-16 22:18:00,
2013-02-16 17:20:00,67.7,47.0,29.92,NW,321,15.5,19.2,47,0.00,,,0.18,TxWx,2013-02-16 22:20:00,
2013-02-16 17:21:00,67.6,47.0,29.92,WNW,298,27.2,27.2,47,0.00,,,0.20,TxWx,2013-02-16 22:21:00,
2013-02-16 17:23:00,67.7,49.0,29.92,WNW,298,14.2,14.2,51,0.54,,,0.22,TxWx,2013-02-16 22:23:00,
2013-02-16 17:24:00,67.6,47.0,29.92,NW,321,14.9,16.1,47,0.54,,,0.22,TxWx,2013-02-16 22:24:00,
2013-02-16 17:27:00,67.5,46.0,29.93,WNW,298,20.4,21.0,46,0.54,,,0.22,TxWx,2013-02-16 22:27:00,
2013-02-16 17:29:00,67.5,47.0,29.92,WNW,298,13.0,14.9,48,0.54,,,0.22,TxWx,2013-02-16 22:29:00,
2013-02-16 17:30:00,67.6,49.0,29.93,WNW,298,16.1,17.3,50,0.54,,,0.22,TxWx,2013-02-16 22:30:00,
2013-02-16 17:32:00,67.6,49.0,29.93,West,276,12.4,12.4,50,0.54,,,0.22,TxWx,2013-02-16 22:32:00,
2013-02-16 17:33:00,67.6,49.0,29.93,WNW,298,12.4,12.4,51,0.00,,,0.22,TxWx,2013-02-16 22:33:00,
2013-02-16 17:35:00,67.4,46.0,29.93,WNW,298,19.8,22.3,48,0.00,,,0.22,TxWx,2013-02-16 22:35:00,
2013-02-16 17:36:00,67.5,47.0,29.93,West,276,15.5,15.5,50,0.00,,,0.22,TxWx,2013-02-16 22:36:00,
2013-02-16 17:37:00,67.4,47.0,29.93,WNW,298,16.7,17.3,48,0.00,,,0.22,TxWx,2013-02-16 22:37:00,
2013-02-16 17:40:00,67.4,47.0,29.93,WNW,298,13.6,13.6,49,0.00,,,0.22,TxWx,2013-02-16 22:40:00,
2013-02-16 17:43:00,67.3,47.0,29.93,WNW,298,17.3,19.8,49,0.18,,,0.25,TxWx,2013-02-16 22:43:00,
2013-02-16 17:45:00,67.3,47.0,29.93,WNW,298,13.6,13.6,48,0.18,,,0.25,TxWx,2013-02-16 22:45:00,
2013-02-16 17:46:00,67.4,49.0,29.93,WNW,298,9.9,10.5,53,0.18,,,0.25,TxWx,2013-02-16 22:46:00,
2013-02-16 17:49:00,67.3,48.0,29.93,NW,321,9.9,9.9,51,0.18,,,0.25,TxWx,2013-02-16 22:49:00,
2013-02-16 17:50:00,67.3,48.0,29.93,WNW,298,9.3,9.9,51,0.18,,,0.25,TxWx,2013-02-16 22:50:00,
2013-02-16 17:51:00,67.2,48.0,29.93,WNW,298,10.5,10.5,50,0.18,,,0.25,TxWx,2013-02-16 22:51:00,
2013-02-16 17:52:00,67.1,47.0,29.93,WNW,298,10.5,10.5,49,0.18,,,0.25,TxWx,2013-02-16 22:52:00,
2013-02-16 17:55:00,67.1,48.0,29.93,WNW,298,9.9,9.9,51,0.00,,,0.25,TxWx,2013-02-16 22:55:00,
2013-02-16 17:56:00,67.1,48.0,29.93,WNW,298,8.7,8.7,52,0.00,,,0.25,TxWx,2013-02-16 22:56:00,
2013-02-16 17:57:00,67.2,49.0,29.94,WNW,298,9.9,9.9,53,0.00,,,0.25,TxWx,2013-02-16 22:57:00,
2013-02-16 17:58:00,67.1,48.0,29.94,WNW,298,14.2,14.2,51,0.00,,,0.25,TxWx,2013-02-16 22:58:00,
2013-02-16 18:00:00,67.0,47.0,29.94,West,276,11.8,11.8,49,0.00,,,0.25,TxWx,2013-02-16 23:00:00,
2013-02-16 18:02:00,67.1,49.0,29.94,WNW,298,8.7,8.7,53,0.00,,,0.25,TxWx,2013-02-16 23:02:00,
2013-02-16 18:03:00,67.0,48.0,29.94,NW,321,5.0,5.0,52,0.00,,,0.25,TxWx,2013-02-16 23:03:00,
2013-02-16 18:05:00,67.0,49.0,29.94,West,276,9.9,13.6,52,0.00,,,0.25,TxWx,2013-02-16 23:05:00,
2013-02-16 18:07:00,66.9,48.0,29.94,WNW,298,9.3,10.5,51,0.00,,,0.25,TxWx,2013-02-16 23:07:00,
2013-02-16 18:08:00,66.9,48.0,29.94,NW,321,11.1,11.1,52,0.00,,,0.25,TxWx,2013-02-16 23:08:00,
2013-02-16 18:09:00,66.8,48.0,29.94,WNW,298,8.7,11.1,52,0.00,,,0.25,TxWx,2013-02-16 23:09:00,
2013-02-16 18:10:00,66.9,50.0,29.94,West,276,7.4,8.0,55,0.00,,,0.25,TxWx,2013-02-16 23:10:00,
2013-02-16 18:14:00,66.7,47.0,29.94,WNW,298,19.2,20.4,49,0.00,,,0.26,TxWx,2013-02-16 23:14:00,
2013-02-16 18:15:00,66.8,49.0,29.94,NNW,343,13.0,14.2,53,0.00,,,0.26,TxWx,2013-02-16 23:15:00,
2013-02-16 18:16:00,66.7,48.0,29.94,WNW,298,16.1,16.1,51,0.00,,,0.26,TxWx,2013-02-16 23:16:00,
2013-02-16 18:19:00,66.6,49.0,29.94,NW,321,20.4,20.4,53,0.00,,,0.26,TxWx,2013-02-16 23:19:00,
2013-02-16 18:21:00,66.5,49.0,29.94,NW,321,12.4,12.4,53,0.00,,,0.26,TxWx,2013-02-16 23:21:00,
2013-02-16 18:22:00,66.4,48.0,29.94,WNW,298,18.6,19.8,52,0.00,,,0.26,TxWx,2013-02-16 23:22:00,
2013-02-16 18:24:00,66.4,48.0,29.94,WNW,298,16.1,16.1,52,0.06,,,0.26,TxWx,2013-02-16 23:24:00,
2013-02-16 18:26:00,66.4,49.0,29.95,West,276,17.9,17.9,54,0.06,,,0.26,TxWx,2013-02-16 23:26:00,
2013-02-16 18:27:00,66.4,49.0,29.95,NW,321,12.4,14.2,54,0.06,,,0.26,TxWx,2013-02-16 23:27:00,
2013-02-16 18:30:00,66.2,49.0,29.95,WNW,298,9.3,9.3,55,0.06,,,0.26,TxWx,2013-02-16 23:30:00,
2013-02-16 18:32:00,66.1,49.0,29.95,NW,321,9.3,11.1,55,0.06,,,0.26,TxWx,2013-02-16 23:32:00,
2013-02-16 18:34:00,65.8,48.0,29.95,West,276,11.1,13.0,53,0.00,,,0.26,TxWx,2013-02-16 23:34:00,
2013-02-16 18:38:00,65.8,49.0,29.96,NW,321,16.1,16.1,55,0.00,,,0.26,TxWx,2013-02-16 23:38:00,
2013-02-16 18:40:00,65.7,50.0,29.96,WNW,298,12.4,13.0,57,0.00,,,0.26,TxWx,2013-02-16 23:40:00,
2013-02-16 18:42:00,65.4,49.0,29.96,NW,321,15.5,16.7,56,0.00,,,0.26,TxWx,2013-02-16 23:42:00,
2013-02-16 18:43:00,65.3,48.0,29.96,WNW,298,13.0,13.0,55,0.00,,,0.26,TxWx,2013-02-16 23:43:00,
2013-02-16 18:45:00,65.3,49.0,29.96,NW,321,9.3,9.9,57,0.00,,,0.26,TxWx,2013-02-16 23:45:00,
2013-02-16 18:46:00,65.2,49.0,29.96,WNW,298,13.0,16.1,57,0.00,,,0.26,TxWx,2013-02-16 23:46:00,
2013-02-16 18:48:00,65.1,49.0,29.96,NW,321,14.2,15.5,57,0.00,,,0.26,TxWx,2013-02-16 23:48:00,
2013-02-16 18:49:00,65.2,51.0,29.96,WNW,298,10.5,12.4,60,0.00,,,0.26,TxWx,2013-02-16 23:49:00,
2013-02-16 18:52:00,65.0,50.0,29.96,WNW,298,10.5,10.5,59,0.00,,,0.26,TxWx,2013-02-16 23:52:00,
2013-02-16 18:53:00,64.9,50.0,29.96,NW,321,11.1,11.1,59,0.00,,,0.26,TxWx,2013-02-16 23:53:00,
2013-02-16 18:54:00,64.7,49.0,29.96,West,276,19.8,21.7,57,0.00,,,0.26,TxWx,2013-02-16 23:54:00,
2013-02-16 18:55:00,64.8,51.0,29.96,NW,321,8.0,9.9,60,0.00,,,0.26,TxWx,2013-02-16 23:55:00,
2013-02-16 18:58:00,64.6,50.0,29.96,NW,321,14.2,16.1,59,0.00,,,0.26,TxWx,2013-02-16 23:58:00,
2013-02-16 18:59:00,64.5,50.0,29.96,WNW,298,14.9,16.7,59,0.00,,,0.26,TxWx,2013-02-16 23:59:00,
2013-02-16 19:00:00,64.5,49.0,29.96,NW,321,10.5,10.5,59,0.00,,,0.26,TxWx,2013-02-17 00:00:00,
2013-02-16 19:01:00,64.5,50.0,29.96,WNW,298,13.0,13.0,60,0.00,,,0.26,TxWx,2013-02-17 00:01:00,
2013-02-16 19:04:00,64.4,50.0,29.96,WNW,298,13.6,14.9,60,0.00,,,0.26,TxWx,2013-02-17 00:04:00,
2013-02-16 19:05:00,64.3,50.0,29.96,NW,321,10.5,13.0,60,0.00,,,0.26,TxWx,2013-02-17 00:05:00,
2013-02-16 19:06:00,64.2,49.0,29.96,WNW,298,10.5,13.0,59,0.00,,,0.26,TxWx,2013-02-17 00:06:00,
2013-02-16 19:07:00,64.1,49.0,29.96,WNW,298,10.5,11.8,59,0.00,,,0.26,TxWx,2013-02-17 00:07:00,
2013-02-16 19:09:00,64.1,50.0,29.96,WNW,298,13.0,13.0,60,0.00,,,0.26,TxWx,2013-02-17 00:09:00,
2013-02-16 19:11:00,64.1,50.0,29.97,NW,321,13.0,13.0,61,0.00,,,0.26,TxWx,2013-02-17 00:11:00,
2013-02-16 19:12:00,64.0,50.0,29.97,WNW,298,12.4,14.9,60,0.00,,,0.26,TxWx,2013-02-17 00:12:00,
2013-02-16 19:14:00,64.0,50.0,29.97,WNW,298,14.2,14.2,60,0.00,,,0.26,TxWx,2013-02-17 00:14:00,
2013-02-16 19:17:00,64.0,51.0,29.97,NW,321,9.9,10.5,63,0.00,,,0.26,TxWx,2013-02-17 00:17:00,
2013-02-16 19:18:00,63.8,50.0,29.97,WNW,298,12.4,13.6,60,0.00,,,0.26,TxWx,2013-02-17 00:18:00,
2013-02-16 19:19:00,63.9,51.0,29.97,WNW,298,12.4,12.4,62,0.00,,,0.26,TxWx,2013-02-17 00:19:00,
2013-02-16 19:20:00,63.8,51.0,29.97,WNW,298,14.2,14.9,62,0.00,,,0.26,TxWx,2013-02-17 00:20:00,
2013-02-16 19:23:00,63.6,50.0,29.97,West,276,16.1,19.8,60,0.00,,,0.26,TxWx,2013-02-17 00:23:00,
2013-02-16 19:24:00,63.6,50.0,29.97,WNW,298,22.9,22.9,60,0.00,,,0.26,TxWx,2013-02-17 00:24:00,
2013-02-16 19:26:00,63.6,50.0,29.98,NW,321,9.9,11.1,60,0.00,,,0.26,TxWx,2013-02-17 00:26:00,
2013-02-16 19:28:00,63.5,49.0,29.98,WNW,298,13.6,13.6,61,0.00,,,0.26,TxWx,2013-02-17 00:28:00,
2013-02-16 19:30:00,63.4,49.0,29.98,WNW,298,18.6,18.6,60,0.00,,,0.26,TxWx,2013-02-17 00:30:00,
2013-02-16 19:31:00,63.4,49.0,29.98,WNW,298,11.1,13.0,61,0.00,,,0.26,TxWx,2013-02-17 00:31:00,
2013-02-16 19:32:00,63.3,49.0,29.98,WNW,298,12.4,12.4,60,0.00,,,0.26,TxWx,2013-02-17 00:32:00,
2013-02-16 19:36:00,63.4,50.0,29.99,WNW,298,15.5,15.5,63,0.00,,,0.26,TxWx,2013-02-17 00:36:00,
2013-02-16 19:37:00,63.3,50.0,29.99,West,276,9.3,11.8,62,0.00,,,0.26,TxWx,2013-02-17 00:37:00,
2013-02-16 19:38:00,63.1,49.0,29.99,West,276,17.9,17.9,61,0.00,,,0.26,TxWx,2013-02-17 00:38:00,
2013-02-16 19:42:00,63.1,50.0,29.99,WNW,298,11.1,11.8,62,0.00,,,0.26,TxWx,2013-02-17 00:42:00,
2013-02-16 19:43:00,62.9,49.0,29.99,West,276,12.4,12.4,60,0.00,,,0.26,TxWx,2013-02-17 00:43:00,
2013-02-16 19:44:00,63.0,50.0,29.99,West,276,10.5,10.5,62,0.00,,,0.26,TxWx,2013-02-17 00:44:00,
2013-02-16 19:47:00,63.0,50.0,30.00,WNW,298,16.1,16.1,63,0.00,,,0.26,TxWx,2013-02-17 00:47:00,
2013-02-16 19:49:00,62.9,49.0,30.00,NW,321,11.1,11.1,61,0.00,,,0.26,TxWx,2013-02-17 00:49:00,
2013-02-16 19:52:00,62.8,49.0,30.00,NW,321,13.6,15.5,60,0.00,,,0.26,TxWx,2013-02-17 00:52:00,
2013-02-16 19:54:00,62.8,49.0,30.00,WNW,298,12.4,12.4,61,0.00,,,0.26,TxWx,2013-02-17 00:54:00,
2013-02-16 19:57:00,62.7,49.0,30.00,WNW,298,8.7,8.7,61,0.00,,,0.26,TxWx,2013-02-17 00:57:00,
2013-02-16 19:59:00,62.6,49.0,30.00,WNW,298,11.1,11.8,60,0.00,,,0.26,TxWx,2013-02-17 00:59:00,
2013-02-16 20:00:00,62.6,49.0,30.00,WNW,298,13.0,13.0,61,0.00,,,0.26,TxWx,2013-02-17 01:00:00,
2013-02-16 20:04:00,62.7,50.0,30.00,NW,321,9.9,9.9,63,0.00,,,0.26,TxWx,2013-02-17 01:04:00,
2013-02-16 20:05:00,62.6,50.0,30.00,WNW,298,11.8,13.6,63,0.00,,,0.26,TxWx,2013-02-17 01:05:00,
2013-02-16 20:06:00,62.4,48.0,30.00,WNW,298,13.6,13.6,61,0.00,,,0.26,TxWx,2013-02-17 01:06:00,
2013-02-16 20:08:00,62.3,48.0,30.00,West,276,11.8,16.7,60,0.00,,,0.26,TxWx,2013-02-17 01:08:00,
2013-02-16 20:11:00,62.2,48.0,30.01,WNW,298,11.8,11.8,61,0.00,,,0.26,TxWx,2013-02-17 01:11:00,
2013-02-16 20:12:00,62.3,49.0,30.01,NW,321,10.5,10.5,62,0.00,,,0.26,TxWx,2013-02-17 01:12:00,
2013-02-16 20:13:00,62.2,49.0,30.01,West,276,14.2,14.2,62,0.00,,,0.26,TxWx,2013-02-17 01:13:00,
2013-02-16 20:16:00,62.0,47.0,30.01,WNW,298,11.1,11.1,59,0.00,,,0.26,TxWx,2013-02-17 01:16:00,
2013-02-16 20:19:00,61.9,47.0,30.01,WNW,298,11.8,12.4,58,0.00,,,0.26,TxWx,2013-02-17 01:19:00,
2013-02-16 20:22:00,61.8,47.0,30.01,NW,321,16.7,16.7,57,0.00,,,0.26,TxWx,2013-02-17 01:22:00,
2013-02-16 20:23:00,61.8,47.0,30.01,WNW,298,13.0,15.5,58,0.00,,,0.26,TxWx,2013-02-17 01:23:00,
2013-02-16 20:25:00,61.7,47.0,30.02,NW,321,10.5,13.6,58,0.00,,,0.26,TxWx,2013-02-17 01:25:00,
2013-02-16 20:26:00,61.6,47.0,30.02,West,276,10.5,14.2,58,0.00,,,0.26,TxWx,2013-02-17 01:26:00,
2013-02-16 20:27:00,61.6,47.0,30.02,WNW,298,11.8,13.0,59,0.00,,,0.26,TxWx,2013-02-17 01:27:00,
2013-02-16 20:28:00,61.6,47.0,30.02,West,276,17.9,17.9,59,0.00,,,0.26,TxWx,2013-02-17 01:28:00,
2013-02-16 20:32:00,61.3,46.0,30.02,WNW,298,14.2,14.9,58,0.00,,,0.26,TxWx,2013-02-17 01:32:00,
2013-02-16 20:33:00,61.3,46.0,30.02,NW,321,13.6,13.6,57,0.00,,,0.26,TxWx,2013-02-17 01:33:00,
2013-02-16 20:34:00,61.3,46.0,30.02,NW,321,12.4,13.0,58,0.00,,,0.26,TxWx,2013-02-17 01:34:00,
2013-02-16 20:38:00,61.2,47.0,30.02,West,276,17.3,17.3,59,0.00,,,0.26,TxWx,2013-02-17 01:38:00,
2013-02-16 20:39:00,61.2,47.0,30.02,WNW,298,10.5,12.4,60,0.00,,,0.26,TxWx,2013-02-17 01:39:00,
2013-02-16 20:40:00,61.1,46.0,30.03,WNW,298,12.4,14.9,58,0.00,,,0.26,TxWx,2013-02-17 01:40:00,
2013-02-16 20:44:00,60.8,46.0,30.03,WNW,298,13.6,16.1,59,0.06,,,0.27,TxWx,2013-02-17 01:44:00,
2013-02-16 20:45:00,61.0,47.0,30.03,WNW,298,16.1,16.1,61,0.06,,,0.27,TxWx,2013-02-17 01:45:00,
2013-02-16 20:46:00,60.9,47.0,30.03,NW,321,13.6,13.6,59,0.06,,,0.27,TxWx,2013-02-17 01:46:00,
2013-02-16 20:47:00,60.8,47.0,30.03,West,276,16.1,17.9,59,0.06,,,0.27,TxWx,2013-02-17 01:47:00,
2013-02-16 20:50:00,60.4,45.0,30.03,West,276,16.1,16.7,57,0.06,,,0.27,TxWx,2013-02-17 01:50:00,
2013-02-16 20:51:00,60.4,45.0,30.03,West,276,17.3,17.9,58,0.06,,,0.27,TxWx,2013-02-17 01:51:00,
2013-02-16 20:54:00,60.3,45.0,30.03,WSW,253,14.9,14.9,59,0.00,,,0.27,TxWx,2013-02-17 01:54:00,
2013-02-16 20:55:00,60.2,45.0,30.03,WNW,298,12.4,13.6,58,0.00,,,0.27,TxWx,2013-02-17 01:55:00,
2013-02-16 20:56:00,60.3,46.0,30.03,WNW,298,8.7,9.9,60,0.00,,,0.27,TxWx,2013-02-17 01:56:00,
2013-02-16 21:00:00,60.0,46.0,30.04,West,276,11.1,14.2,60,0.00,,,0.27,TxWx,2013-02-17 02:00:00,
2013-02-16 21:01:00,60.1,46.0,30.04,NW,321,13.0,13.0,60,0.00,,,0.27,TxWx,2013-02-17 02:01:00,
2013-02-16 21:02:00,60.0,46.0,30.04,NW,321,8.0,9.9,60,0.00,,,0.27,TxWx,2013-02-17 02:02:00,
2013-02-16 21:06:00,59.7,45.0,30.04,WNW,298,17.3,18.6,58,0.00,,,0.27,TxWx,2013-02-17 02:06:00,
2013-02-16 21:08:00,59.7,46.0,30.04,NW,321,8.7,8.7,60,0.00,,,0.27,TxWx,2013-02-17 02:08:00,
2013-02-16 21:11:00,59.5,45.0,30.04,NW,321,17.3,22.3,59,0.00,,,0.27,TxWx,2013-02-17 02:11:00,
2013-02-16 21:13:00,59.3,45.0,30.04,NW,321,9.3,11.1,59,0.00,,,0.27,TxWx,2013-02-17 02:13:00,
2013-02-16 21:14:00,59.3,45.0,30.04,WNW,298,10.5,13.6,59,0.00,,,0.27,TxWx,2013-02-17 02:14:00,
2013-02-16 21:19:00,59.2,44.0,30.04,WNW,298,16.1,19.2,57,0.00,,,0.27,TxWx,2013-02-17 02:19:00,
2013-02-16 21:20:00,59.1,44.0,30.04,NW,321,16.1,16.1,57,0.00,,,0.27,TxWx,2013-02-17 02:20:00,
2013-02-16 21:21:00,59.1,44.0,30.04,NW,321,17.3,18.6,57,0.00,,,0.27,TxWx,2013-02-17 02:21:00,
2013-02-16 21:25:00,58.9,44.0,30.04,WNW,298,18.6,19.2,58,0.00,,,0.27,TxWx,2013-02-17 02:25:00,
2013-02-16 21:26:00,58.9,45.0,30.04,West,276,17.9,17.9,59,0.00,,,0.27,TxWx,2013-02-17 02:26:00,
2013-02-16 21:30:00,58.9,46.0,30.05,WNW,298,11.1,11.1,62,0.00,,,0.27,TxWx,2013-02-17 02:30:00,
2013-02-16 21:31:00,58.8,46.0,30.05,WNW,298,9.9,9.9,61,0.00,,,0.27,TxWx,2013-02-17 02:31:00,
2013-02-16 21:32:00,58.8,45.0,30.05,WNW,298,8.7,8.7,61,0.00,,,0.27,TxWx,2013-02-17 02:32:00,
2013-02-16 21:34:00,58.7,46.0,30.05,WNW,298,5.0,5.6,61,0.00,,,0.27,TxWx,2013-02-17 02:34:00,
2013-02-16 21:36:00,58.6,46.0,30.05,NW,321,9.9,9.9,62,0.00,,,0.27,TxWx,2013-02-17 02:36:00,
2013-02-16 21:39:00,58.6,46.0,30.05,NW,321,5.6,6.2,63,0.00,,,0.27,TxWx,2013-02-17 02:39:00,
2013-02-16 21:41:00,58.3,44.0,30.05,NW,321,6.8,8.0,61,0.00,,,0.27,TxWx,2013-02-17 02:41:00,
2013-02-16 21:42:00,58.3,45.0,30.06,NW,321,7.4,8.0,61,0.00,,,0.27,TxWx,2013-02-17 02:42:00,
2013-02-16 21:44:00,58.1,45.0,30.05,West,276,8.0,10.5,61,0.00,,,0.27,TxWx,2013-02-17 02:44:00,
2013-02-16 21:47:00,58.3,46.0,30.05,WNW,298,7.4,7.4,64,0.00,,,0.27,TxWx,2013-02-17 02:47:00,
2013-02-16 21:51:00,58.0,46.0,30.06,WNW,298,6.8,8.7,64,0.00,,,0.27,TxWx,2013-02-17 02:51:00,
2013-02-16 21:52:00,57.8,45.0,30.06,NW,321,11.1,11.1,63,0.00,,,0.27,TxWx,2013-02-17 02:52:00,
2013-02-16 21:53:00,58.0,46.0,30.06,NW,321,5.6,6.2,64,0.00,,,0.27,TxWx,2013-02-17 02:53:00,
2013-02-16 21:54:00,57.8,45.0,30.06,NW,321,18.6,18.6,62,0.00,,,0.27,TxWx,2013-02-17 02:54:00,
2013-02-16 21:58:00,57.6,45.0,30.06,NW,321,9.9,12.4,61,0.00,,,0.27,TxWx,2013-02-17 02:58:00,
2013-02-16 22:01:00,57.4,43.0,30.06,NW,321,11.8,11.8,60,0.00,,,0.27,TxWx,2013-02-17 03:01:00,
2013-02-16 22:03:00,57.5,46.0,30.06,NW,321,9.3,9.3,64,0.00,,,0.27,TxWx,2013-02-17 03:03:00,
2013-02-16 22:04:00,57.3,44.0,30.06,WNW,298,8.7,11.8,62,0.00,,,0.27,TxWx,2013-02-17 03:04:00,
2013-02-16 22:07:00,57.3,44.0,30.06,NW,321,13.0,13.0,63,0.00,,,0.27,TxWx,2013-02-17 03:07:00,
2013-02-16 22:09:00,57.1,44.0,30.06,NW,321,8.0,9.3,61,0.00,,,0.27,TxWx,2013-02-17 03:09:00,
2013-02-16 22:14:00,57.2,44.0,30.06,WNW,298,8.0,8.0,63,0.00,,,0.27,TxWx,2013-02-17 03:14:00,
2013-02-16 22:15:00,57.4,45.0,30.06,NW,321,10.5,10.5,65,0.00,,,0.27,TxWx,2013-02-17 03:15:00,
2013-02-16 22:16:00,56.8,43.0,30.06,WNW,298,19.8,21.0,60,0.00,,,0.27,TxWx,2013-02-17 03:16:00,
2013-02-16 22:20:00,56.8,44.0,30.06,NW,321,8.7,13.6,61,0.00,,,0.27,TxWx,2013-02-17 03:20:00,
2013-02-16 22:21:00,56.8,43.0,30.06,West,276,10.5,13.6,61,0.00,,,0.27,TxWx,2013-02-17 03:21:00,
2013-02-16 22:23:00,56.7,44.0,30.06,NNW,343,6.8,8.0,61,0.00,,,0.27,TxWx,2013-02-17 03:23:00,
2013-02-16 22:26:00,56.7,44.0,30.06,NW,321,8.7,8.7,61,0.00,,,0.27,TxWx,2013-02-17 03:26:00,
2013-02-16 22:27:00,56.6,44.0,30.06,North,6,9.9,9.9,61,0.00,,,0.27,TxWx,2013-02-17 03:27:00,
2013-02-16 22:28:00,56.5,43.0,30.07,NW,321,17.3,19.8,61,0.00,,,0.27,TxWx,2013-02-17 03:28:00,
2013-02-16 22:32:00,56.6,44.0,30.07,NW,321,11.1,11.1,62,0.00,,,0.27,TxWx,2013-02-17 03:32:00,
2013-02-16 22:33:00,56.7,44.0,30.07,WNW,298,10.5,10.5,62,0.00,,,0.27,TxWx,2013-02-17 03:33:00,
2013-02-16 22:34:00,56.4,42.0,30.07,WNW,298,8.0,10.5,60,0.00,,,0.27,TxWx,2013-02-17 03:34:00,
2013-02-16 22:38:00,56.4,42.0,30.07,WNW,298,8.7,9.9,60,0.00,,,0.27,TxWx,2013-02-17 03:38:00,
2013-02-16 22:40:00,56.4,42.0,30.07,NW,321,9.9,9.9,60,0.00,,,0.27,TxWx,2013-02-17 03:40:00,
2013-02-16 22:42:00,56.1,41.0,30.07,NW,321,10.5,14.2,58,0.00,,,0.27,TxWx,2013-02-17 03:42:00,
2013-02-16 22:44:00,56.2,42.0,30.07,NW,321,11.1,11.1,60,0.00,,,0.27,TxWx,2013-02-17 03:44:00,
2013-02-16 22:45:00,56.3,42.0,30.08,NNW,343,14.9,14.9,60,0.00,,,0.27,TxWx,2013-02-17 03:45:00,
2013-02-16 22:46:00,56.1,41.0,30.07,WNW,298,12.4,22.9,58,0.00,,,0.27,TxWx,2013-02-17 03:46:00,
2013-02-16 22:49:00,56.4,43.0,30.08,NNW,343,13.6,13.6,62,0.00,,,0.27,TxWx,2013-02-17 03:49:00,
2013-02-16 22:51:00,56.0,41.0,30.07,NW,321,16.1,16.7,58,0.00,,,0.27,TxWx,2013-02-17 03:51:00,
2013-02-16 22:53:00,56.2,42.0,30.08,WNW,298,11.8,11.8,60,0.00,,,0.27,TxWx,2013-02-17 03:53:00,
2013-02-16 22:54:00,56.2,42.0,30.08,NW,321,8.7,9.3,60,0.00,,,0.27,TxWx,2013-02-17 03:54:00,
2013-02-16 22:56:00,56.2,42.0,30.08,WNW,298,11.8,13.6,60,0.00,,,0.27,TxWx,2013-02-17 03:56:00,
2013-02-16 23:00:00,56.0,42.0,30.08,WNW,298,10.5,11.8,59,0.00,,,0.27,TxWx,2013-02-17 04:00:00,
2013-02-16 23:03:00,56.1,43.0,30.08,NNW,343,8.0,8.0,62,0.00,,,0.27,TxWx,2013-02-17 04:03:00,
2013-02-16 23:05:00,55.8,42.0,30.08,NW,321,7.4,7.4,60,0.00,,,0.27,TxWx,2013-02-17 04:05:00,
2013-02-16 23:07:00,55.8,42.0,30.08,NW,321,6.8,6.8,60,0.00,,,0.27,TxWx,2013-02-17 04:07:00,
2013-02-16 23:09:00,56.0,44.0,30.08,WNW,298,8.7,8.7,63,0.00,,,0.27,TxWx,2013-02-17 04:09:00,
2013-02-16 23:11:00,55.8,43.0,30.09,NW,321,11.1,11.1,62,0.00,,,0.27,TxWx,2013-02-17 04:11:00,
2013-02-16 23:13:00,55.5,41.0,30.08,WNW,298,10.5,13.0,59,0.00,,,0.27,TxWx,2013-02-17 04:13:00,
2013-02-16 23:15:00,55.5,41.0,30.08,NW,321,9.9,13.6,60,0.00,,,0.27,TxWx,2013-02-17 04:15:00,
2013-02-16 23:16:00,55.8,44.0,30.08,NW,321,6.8,9.9,64,0.00,,,0.27,TxWx,2013-02-17 04:16:00,
2013-02-16 23:17:00,55.6,43.0,30.08,NW,321,11.1,11.8,61,0.00,,,0.27,TxWx,2013-02-17 04:17:00,
2013-02-16 23:19:00,55.4,41.0,30.09,NW,321,14.9,20.4,60,0.00,,,0.27,TxWx,2013-02-17 04:19:00,
2013-02-16 23:22:00,55.3,41.0,30.09,WNW,298,11.1,11.8,59,0.00,,,0.27,TxWx,2013-02-17 04:22:00,
2013-02-16 23:23:00,55.4,42.0,30.09,WNW,298,9.9,9.9,61,0.00,,,0.27,TxWx,2013-02-17 04:23:00,
2013-02-16 23:24:00,55.6,43.0,30.09,NW,321,12.4,12.4,63,0.00,,,0.27,TxWx,2013-02-17 04:24:00,
2013-02-16 23:27:00,55.5,43.0,30.09,NW,321,11.1,12.4,61,0.00,,,0.27,TxWx,2013-02-17 04:27:00,
2013-02-16 23:28:00,55.6,43.0,30.09,NW,321,13.6,14.9,62,0.00,,,0.27,TxWx,2013-02-17 04:28:00,
2013-02-16 23:29:00,55.7,44.0,30.09,NW,321,9.3,9.9,63,0.00,,,0.27,TxWx,2013-02-17 04:29:00,
2013-02-16 23:30:00,55.5,43.0,30.09,West,276,8.0,9.9,62,0.00,,,0.27,TxWx,2013-02-17 04:30:00,
2013-02-16 23:33:00,55.5,42.0,30.09,NNW,343,8.7,8.7,62,0.00,,,0.27,TxWx,2013-02-17 04:33:00,
2013-02-16 23:35:00,55.4,42.0,30.09,NW,321,8.7,8.7,62,0.00,,,0.27,TxWx,2013-02-17 04:35:00,
2013-02-16 23:40:00,55.3,42.0,30.09,NNW,343,6.8,9.3,63,0.00,,,0.27,TxWx,2013-02-17 04:40:00,
2013-02-16 23:41:00,55.3,43.0,30.09,WNW,298,8.7,10.5,63,0.00,,,0.27,TxWx,2013-02-17 04:41:00,
2013-02-16 23:42:00,55.3,42.0,30.09,WNW,298,7.4,7.4,61,0.00,,,0.27,TxWx,2013-02-17 04:42:00,
2013-02-16 23:43:00,55.2,42.0,30.09,NW,321,9.9,13.0,62,0.00,,,0.27,TxWx,2013-02-17 04:43:00,
2013-02-16 23:47:00,55.4,42.0,30.09,NNW,343,7.4,7.4,62,0.00,,,0.27,TxWx,2013-02-17 04:47:00,
2013-02-16 23:52:00,55.0,42.0,30.09,NW,321,9.3,9.3,61,0.00,,,0.27,TxWx,2013-02-17 04:52:00,
2013-02-16 23:53:00,54.9,41.0,30.09,NW,321,9.3,9.3,60,0.00,,,0.27,TxWx,2013-02-17 04:53:00,
2013-02-16 23:54:00,55.0,42.0,30.09,NW,321,9.9,9.9,61,0.00,,,0.27,TxWx,2013-02-17 04:54:00,
2013-02-16 23:57:00,55.2,43.0,30.10,NW,321,8.7,10.5,63,0.00,,,0.27,TxWx,2013-02-17 04:57:00,